Observation data for Aiken on 07/11/2018      Previous  Date       Current Mesonet Observations  Soil Data  Daily Summary Page  Observations in Plain Language
KAI1 110501Z 17008KT 23/16 A3016 RMK A01 T02320163  RH  065%=      5-min Rain = 0
KAI1 110502Z 17008KT 23/16 A3016 RMK A01 T02310163  RH  065%=      5-min Rain = 0
KAI1 110503Z 17008KT 23/16 A3016 RMK A01 T02310163  RH  065%=      5-min Rain = 0
KAI1 110504Z 17008KT 23/16 A3016 RMK A01 T02320163  RH  065%=      5-min Rain = 0
KAI1 110505Z 17008KT 23/16 A3016 RMK A01 T02310163  RH  065%=      5-min Rain = 0
KAI1 110506Z 17009KT 23/16 A3016 RMK A01 T02320163  RH  065%=      5-min Rain = 0
KAI1 110507Z 17008KT 23/16 A3016 RMK A01 T02310163  RH  065%=      5-min Rain = 0
KAI1 110508Z 17008KT 23/16 A3016 RMK A01 T02310163  RH  065%=      5-min Rain = 0
KAI1 110509Z 17008KT 23/16 A3016 RMK A01 T02310163  RH  065%=      5-min Rain = 0
KAI1 110510Z 17009KT 23/16 A3016 RMK A01 T02310163  RH  065%=      5-min Rain = 0
KAI1 110511Z 17008KT 23/16 A3016 RMK A01 T02310163  RH  065%=      5-min Rain = 0
KAI1 110512Z 17008KT 23/16 A3016 RMK A01 T02320163  RH  065%=      5-min Rain = 0
KAI1 110513Z 17009KT 23/16 A3016 RMK A01 T02320163  RH  065%=      5-min Rain = 0
KAI1 110514Z 17008KT 23/16 A3016 RMK A01 T02320163  RH  065%=      5-min Rain = 0
KAI1 110515Z 16008KT 23/16 A3016 RMK A01 T02320163  RH  065%=      5-min Rain = 0
KAI1 110516Z 17008KT 23/16 A3016 RMK A01 T02320163  RH  065%=      5-min Rain = 0
KAI1 110517Z 17008KT 23/16 A3016 RMK A01 T02320163  RH  065%=      5-min Rain = 0
KAI1 110518Z 17007KT 23/16 A3016 RMK A01 T02320163  RH  065%=      5-min Rain = 0
KAI1 110519Z 17007KT 23/16 A3016 RMK A01 T02310163  RH  065%=      5-min Rain = 0
KAI1 110520Z 16008KT 23/16 A3016 RMK A01 T02310162  RH  065%=      5-min Rain = 0
KAI1 110521Z 16007KT 23/16 A3016 RMK A01 T02310163  RH  065%=      5-min Rain = 0
KAI1 110522Z 17007KT 23/16 A3016 RMK A01 T02310162  RH  065%=      5-min Rain = 0
KAI1 110523Z 16007KT 23/16 A3016 RMK A01 T02310163  RH  065%=      5-min Rain = 0
KAI1 110524Z 16007KT 23/16 A3016 RMK A01 T02310162  RH  065%=      5-min Rain = 0
KAI1 110525Z 16007KT 23/16 A3016 RMK A01 T02300162  RH  065%=      5-min Rain = 0
KAI1 110526Z 16007KT 23/16 A3016 RMK A01 T02300162  RH  065%=      5-min Rain = 0
KAI1 110527Z 16007KT 23/16 A3016 RMK A01 T02310162  RH  065%=      5-min Rain = 0
KAI1 110528Z 16007KT 23/16 A3016 RMK A01 T02310162  RH  065%=      5-min Rain = 0
KAI1 110529Z 17007KT 23/16 A3016 RMK A01 T02310162  RH  065%=      5-min Rain = 0
KAI1 110530Z 17007KT 23/16 A3016 RMK A01 T02300162  RH  065%=      5-min Rain = 0
KAI1 110531Z 16007KT 23/16 A3016 RMK A01 T02300162  RH  065%=      5-min Rain = 0
KAI1 110532Z 17007KT 23/16 A3016 RMK A01 T02300162  RH  066%=      5-min Rain = 0
KAI1 110533Z 17007KT 23/16 A3016 RMK A01 T02290162  RH  066%=      5-min Rain = 0
KAI1 110534Z 16007KT 23/16 A3016 RMK A01 T02290162  RH  066%=      5-min Rain = 0
KAI1 110535Z 17007KT 23/16 A3016 RMK A01 T02290162  RH  066%=      5-min Rain = 0
KAI1 110536Z 16007KT 23/16 A3016 RMK A01 T02290163  RH  066%=      5-min Rain = 0
KAI1 110537Z 16007KT 23/16 A3016 RMK A01 T02280163  RH  066%=      5-min Rain = 0
KAI1 110538Z 16007KT 23/16 A3016 RMK A01 T02280163  RH  067%=      5-min Rain = 0
KAI1 110539Z 16007KT 23/16 A3016 RMK A01 T02280163  RH  067%=      5-min Rain = 0
KAI1 110540Z 17006KT 23/16 A3016 RMK A01 T02270163  RH  067%=      5-min Rain = 0
KAI1 110541Z 16007KT 23/16 A3016 RMK A01 T02270163  RH  067%=      5-min Rain = 0
KAI1 110542Z 17007KT 23/16 A3016 RMK A01 T02270163  RH  067%=      5-min Rain = 0
KAI1 110543Z 17007KT 23/16 A3016 RMK A01 T02260163  RH  067%=      5-min Rain = 0
KAI1 110544Z 17007KT 23/16 A3016 RMK A01 T02260163  RH  067%=      5-min Rain = 0
KAI1 110545Z 17007KT 23/16 A3016 RMK A01 T02260163  RH  067%=      5-min Rain = 0
KAI1 110546Z 17007KT 23/16 A3016 RMK A01 T02260163  RH  068%=      5-min Rain = 0
KAI1 110547Z 17007KT 23/16 A3016 RMK A01 T02260163  RH  068%=      5-min Rain = 0
KAI1 110548Z 17007KT 23/16 A3016 RMK A01 T02260163  RH  068%=      5-min Rain = 0
KAI1 110549Z 17007KT 23/16 A3016 RMK A01 T02250163  RH  068%=      5-min Rain = 0
KAI1 110550Z 17007KT 23/16 A3016 RMK A01 T02250163  RH  068%=      5-min Rain = 0
KAI1 110551Z 17007KT 23/16 A3016 RMK A01 T02250163  RH  068%=      5-min Rain = 0
KAI1 110552Z 16007KT 23/16 A3016 RMK A01 T02260163  RH  068%=      5-min Rain = 0
KAI1 110553Z 17006KT 23/16 A3016 RMK A01 T02260163  RH  068%=      5-min Rain = 0
KAI1 110554Z 16007KT 23/16 A3016 RMK A01 T02250163  RH  068%=      5-min Rain = 0
KAI1 110555Z 16007KT 23/16 A3016 RMK A01 T02260163  RH  068%=      5-min Rain = 0
KAI1 110556Z 16006KT 23/16 A3016 RMK A01 T02250163  RH  068%=      5-min Rain = 0
KAI1 110557Z 16007KT 23/16 A3016 RMK A01 T02260163  RH  068%=      5-min Rain = 0
KAI1 110558Z 16007KT 23/16 A3016 RMK A01 T02250163  RH  068%=      5-min Rain = 0
KAI1 110559Z 16007KT 23/16 A3016 RMK A01 T02260164  RH  068%=      5-min Rain = 0
KAI1 110600Z 16007KT 23/16 A3016 RMK A01 T02250163  RH  068%=      5-min Rain = 0
KAI1 110601Z 16007KT 23/16 A3016 RMK A01 T02250163  RH  068%=      5-min Rain = 0
KAI1 110602Z 16007KT 23/16 A3016 RMK A01 T02250163  RH  068%=      5-min Rain = 0
KAI1 110603Z 16006KT 23/16 A3016 RMK A01 T02250163  RH  068%=      5-min Rain = 0
KAI1 110604Z 16006KT 22/16 A3016 RMK A01 T02240163  RH  068%=      5-min Rain = 0
KAI1 110605Z 16006KT 22/16 A3016 RMK A01 T02240163  RH  069%=      5-min Rain = 0
KAI1 110606Z 16006KT 22/16 A3016 RMK A01 T02240164  RH  069%=      5-min Rain = 0
KAI1 110607Z 16006KT 22/16 A3016 RMK A01 T02230163  RH  069%=      5-min Rain = 0
KAI1 110608Z 16007KT 22/16 A3016 RMK A01 T02230163  RH  069%=      5-min Rain = 0
KAI1 110609Z 16006KT 22/16 A3016 RMK A01 T02230164  RH  069%=      5-min Rain = 0
KAI1 110610Z 16006KT 22/16 A3016 RMK A01 T02230163  RH  069%=      5-min Rain = 0
KAI1 110611Z 16006KT 22/16 A3016 RMK A01 T02230163  RH  069%=      5-min Rain = 0
KAI1 110612Z 16006KT 22/16 A3016 RMK A01 T02230164  RH  069%=      5-min Rain = 0
KAI1 110613Z 16006KT 22/16 A3016 RMK A01 T02230164  RH  069%=      5-min Rain = 0
KAI1 110614Z 16006KT 22/16 A3016 RMK A01 T02230164  RH  069%=      5-min Rain = 0
KAI1 110615Z 16007KT 22/16 A3016 RMK A01 T02220164  RH  069%=      5-min Rain = 0
KAI1 110616Z 15006KT 22/16 A3016 RMK A01 T02220164  RH  069%=      5-min Rain = 0
KAI1 110617Z 16007KT 22/16 A3016 RMK A01 T02220164  RH  069%=      5-min Rain = 0
KAI1 110618Z 16006KT 22/16 A3016 RMK A01 T02220163  RH  069%=      5-min Rain = 0
KAI1 110619Z 16006KT 22/16 A3016 RMK A01 T02220163  RH  069%=      5-min Rain = 0
KAI1 110620Z 16006KT 22/16 A3016 RMK A01 T02220163  RH  070%=      5-min Rain = 0
KAI1 110621Z 16007KT 22/16 A3016 RMK A01 T02220164  RH  070%=      5-min Rain = 0
KAI1 110622Z 16006KT 22/16 A3016 RMK A01 T02220164  RH  070%=      5-min Rain = 0
KAI1 110623Z 16007KT 22/16 A3016 RMK A01 T02220164  RH  070%=      5-min Rain = 0
KAI1 110624Z 16007KT 22/16 A3016 RMK A01 T02220164  RH  070%=      5-min Rain = 0
KAI1 110625Z 16007KT 22/16 A3016 RMK A01 T02220164  RH  070%=      5-min Rain = 0
KAI1 110626Z 16007KT 22/16 A3016 RMK A01 T02220164  RH  070%=      5-min Rain = 0
KAI1 110627Z 16007KT 22/17 A3016 RMK A01 T02220165  RH  070%=      5-min Rain = 0
KAI1 110628Z 16007KT 22/17 A3016 RMK A01 T02220165  RH  070%=      5-min Rain = 0
KAI1 110629Z 16006KT 22/17 A3016 RMK A01 T02220165  RH  070%=      5-min Rain = 0
KAI1 110630Z 16007KT 22/16 A3016 RMK A01 T02210164  RH  070%=      5-min Rain = 0
KAI1 110631Z 16006KT 22/17 A3016 RMK A01 T02210165  RH  070%=      5-min Rain = 0
KAI1 110632Z 16006KT 22/16 A3016 RMK A01 T02210164  RH  070%=      5-min Rain = 0
KAI1 110633Z 15006KT 22/16 A3016 RMK A01 T02210164  RH  070%=      5-min Rain = 0
KAI1 110634Z 16006KT 22/17 A3016 RMK A01 T02210165  RH  070%=      5-min Rain = 0
KAI1 110635Z 15007KT 22/17 A3016 RMK A01 T02210165  RH  070%=      5-min Rain = 0
KAI1 110636Z 16007KT 22/17 A3016 RMK A01 T02210165  RH  071%=      5-min Rain = 0
KAI1 110637Z 16007KT 22/17 A3016 RMK A01 T02210165  RH  071%=      5-min Rain = 0
KAI1 110638Z 16007KT 22/17 A3016 RMK A01 T02210165  RH  071%=      5-min Rain = 0
KAI1 110639Z 16007KT 22/17 A3016 RMK A01 T02210166  RH  071%=      5-min Rain = 0
KAI1 110640Z 16007KT 22/17 A3016 RMK A01 T02210166  RH  071%=      5-min Rain = 0
KAI1 110641Z 16007KT 22/17 A3016 RMK A01 T02210166  RH  071%=      5-min Rain = 0
KAI1 110642Z 16007KT 22/17 A3016 RMK A01 T02200166  RH  071%=      5-min Rain = 0
KAI1 110643Z 16007KT 22/17 A3016 RMK A01 T02200166  RH  071%=      5-min Rain = 0
KAI1 110644Z 16007KT 22/17 A3016 RMK A01 T02200166  RH  071%=      5-min Rain = 0
KAI1 110645Z 16007KT 22/17 A3016 RMK A01 T02210167  RH  071%=      5-min Rain = 0
KAI1 110646Z 16007KT 22/17 A3016 RMK A01 T02200166  RH  071%=      5-min Rain = 0
KAI1 110647Z 16007KT 22/17 A3016 RMK A01 T02200166  RH  072%=      5-min Rain = 0
KAI1 110648Z 16006KT 22/17 A3016 RMK A01 T02200166  RH  072%=      5-min Rain = 0
KAI1 110649Z 16006KT 22/17 A3017 RMK A01 T02200166  RH  072%=      5-min Rain = 0
KAI1 110650Z 16006KT 22/17 A3017 RMK A01 T02190166  RH  072%=      5-min Rain = 0
KAI1 110651Z 16006KT 22/17 A3017 RMK A01 T02190166  RH  072%=      5-min Rain = 0
KAI1 110652Z 16007KT 22/17 A3017 RMK A01 T02190166  RH  072%=      5-min Rain = 0
KAI1 110653Z 16006KT 22/17 A3017 RMK A01 T02190166  RH  072%=      5-min Rain = 0
KAI1 110654Z 16006KT 22/17 A3017 RMK A01 T02190166  RH  072%=      5-min Rain = 0
KAI1 110655Z 16006KT 22/17 A3017 RMK A01 T02190166  RH  072%=      5-min Rain = 0
KAI1 110656Z 16006KT 22/17 A3017 RMK A01 T02190166  RH  072%=      5-min Rain = 0
KAI1 110657Z 17006KT 22/17 A3017 RMK A01 T02200166  RH  072%=      5-min Rain = 0
KAI1 110658Z 16006KT 22/17 A3017 RMK A01 T02200166  RH  072%=      5-min Rain = 0
KAI1 110659Z 16006KT 22/17 A3017 RMK A01 T02200166  RH  072%=      5-min Rain = 0
KAI1 110700Z 17006KT 22/17 A3017 RMK A01 T02200166  RH  072%=      5-min Rain = 0
KAI1 110701Z 17006KT 22/17 A3017 RMK A01 T02200166  RH  072%=      5-min Rain = 0
KAI1 110702Z 17006KT 22/17 A3017 RMK A01 T02190166  RH  072%=      5-min Rain = 0
KAI1 110703Z 17006KT 22/17 A3017 RMK A01 T02190166  RH  072%=      5-min Rain = 0
KAI1 110704Z 17005KT 22/17 A3017 RMK A01 T02190166  RH  072%=      5-min Rain = 0
KAI1 110705Z 17005KT 22/17 A3017 RMK A01 T02190166  RH  072%=      5-min Rain = 0
KAI1 110706Z 17006KT 22/17 A3017 RMK A01 T02190166  RH  072%=      5-min Rain = 0
KAI1 110707Z 17006KT 22/17 A3017 RMK A01 T02180166  RH  072%=      5-min Rain = 0
KAI1 110708Z 17006KT 22/17 A3017 RMK A01 T02180165  RH  072%=      5-min Rain = 0
KAI1 110709Z 17006KT 22/17 A3017 RMK A01 T02180166  RH  072%=      5-min Rain = 0
KAI1 110710Z 17006KT 22/17 A3017 RMK A01 T02180166  RH  072%=      5-min Rain = 0
KAI1 110711Z 17006KT 22/17 A3017 RMK A01 T02180166  RH  072%=      5-min Rain = 0
KAI1 110712Z 17006KT 22/17 A3017 RMK A01 T02170166  RH  073%=      5-min Rain = 0
KAI1 110713Z 17006KT 22/17 A3017 RMK A01 T02170166  RH  073%=      5-min Rain = 0
KAI1 110714Z 17006KT 22/17 A3017 RMK A01 T02170166  RH  073%=      5-min Rain = 0
KAI1 110715Z 17005KT 22/17 A3017 RMK A01 T02160166  RH  073%=      5-min Rain = 0
KAI1 110716Z 17006KT 22/17 A3017 RMK A01 T02160166  RH  073%=      5-min Rain = 0
KAI1 110717Z 17006KT 22/17 A3017 RMK A01 T02160167  RH  074%=      5-min Rain = 0
KAI1 110718Z 17006KT 22/17 A3017 RMK A01 T02150167  RH  074%=      5-min Rain = 0
KAI1 110719Z 17006KT 22/17 A3017 RMK A01 T02150167  RH  074%=      5-min Rain = 0
KAI1 110720Z 16006KT 22/17 A3017 RMK A01 T02150167  RH  074%=      5-min Rain = 0
KAI1 110721Z 17005KT 21/17 A3017 RMK A01 T02140167  RH  074%=      5-min Rain = 0
KAI1 110722Z 17005KT 21/17 A3017 RMK A01 T02140166  RH  074%=      5-min Rain = 0
KAI1 110723Z 17005KT 21/17 A3017 RMK A01 T02140167  RH  074%=      5-min Rain = 0
KAI1 110724Z 17005KT 21/17 A3017 RMK A01 T02130167  RH  075%=      5-min Rain = 0
KAI1 110725Z 17005KT 21/17 A3017 RMK A01 T02130166  RH  075%=      5-min Rain = 0
KAI1 110726Z 17005KT 21/17 A3017 RMK A01 T02130167  RH  075%=      5-min Rain = 0
KAI1 110727Z 17005KT 21/17 A3017 RMK A01 T02130167  RH  075%=      5-min Rain = 0
KAI1 110728Z 17006KT 21/17 A3017 RMK A01 T02130167  RH  075%=      5-min Rain = 0
KAI1 110729Z 17006KT 21/17 A3017 RMK A01 T02130167  RH  075%=      5-min Rain = 0
KAI1 110730Z 17006KT 21/17 A3017 RMK A01 T02130167  RH  075%=      5-min Rain = 0
KAI1 110731Z 17006KT 21/17 A3017 RMK A01 T02130167  RH  075%=      5-min Rain = 0
KAI1 110732Z 17006KT 21/17 A3017 RMK A01 T02130167  RH  075%=      5-min Rain = 0
KAI1 110733Z 17007KT 21/17 A3017 RMK A01 T02120166  RH  075%=      5-min Rain = 0
KAI1 110734Z 17006KT 21/17 A3017 RMK A01 T02130166  RH  075%=      5-min Rain = 0
KAI1 110735Z 17007KT 21/17 A3017 RMK A01 T02130166  RH  075%=      5-min Rain = 0
KAI1 110736Z 17007KT 21/17 A3017 RMK A01 T02130166  RH  075%=      5-min Rain = 0
KAI1 110737Z 17007KT 21/17 A3017 RMK A01 T02130167  RH  075%=      5-min Rain = 0
KAI1 110738Z 17007KT 21/17 A3017 RMK A01 T02130167  RH  075%=      5-min Rain = 0
KAI1 110739Z 18007KT 21/17 A3017 RMK A01 T02130167  RH  075%=      5-min Rain = 0
KAI1 110740Z 18007KT 21/17 A3017 RMK A01 T02130166  RH  075%=      5-min Rain = 0
KAI1 110741Z 18006KT 21/17 A3017 RMK A01 T02130166  RH  074%=      5-min Rain = 0
KAI1 110742Z 18006KT 21/17 A3017 RMK A01 T02140166  RH  074%=      5-min Rain = 0
KAI1 110743Z 18007KT 21/17 A3017 RMK A01 T02140166  RH  074%=      5-min Rain = 0
KAI1 110744Z 18007KT 21/17 A3017 RMK A01 T02140166  RH  074%=      5-min Rain = 0
KAI1 110745Z 18006KT 21/17 A3016 RMK A01 T02130166  RH  074%=      5-min Rain = 0
KAI1 110746Z 18007KT 21/17 A3016 RMK A01 T02130166  RH  075%=      5-min Rain = 0
KAI1 110747Z 18007KT 21/17 A3016 RMK A01 T02120166  RH  075%=      5-min Rain = 0
KAI1 110748Z 18007KT 21/17 A3016 RMK A01 T02120166  RH  075%=      5-min Rain = 0
KAI1 110749Z 18007KT 21/17 A3016 RMK A01 T02120166  RH  075%=      5-min Rain = 0
KAI1 110750Z 18008KT 21/17 A3016 RMK A01 T02110166  RH  075%=      5-min Rain = 0
KAI1 110751Z 18008KT 21/17 A3016 RMK A01 T02110166  RH  075%=      5-min Rain = 0
KAI1 110752Z 19007KT 21/17 A3016 RMK A01 T02110165  RH  075%=      5-min Rain = 0
KAI1 110753Z 18007KT 21/17 A3016 RMK A01 T02110165  RH  075%=      5-min Rain = 0
KAI1 110754Z 19007KT 21/16 A3016 RMK A01 T02110164  RH  075%=      5-min Rain = 0
KAI1 110755Z 19007KT 21/16 A3016 RMK A01 T02110164  RH  075%=      5-min Rain = 0
KAI1 110756Z 19008KT 21/17 A3016 RMK A01 T02110165  RH  075%=      5-min Rain = 0
KAI1 110757Z 19007KT 21/17 A3016 RMK A01 T02120165  RH  074%=      5-min Rain = 0
KAI1 110758Z 19008KT 21/16 A3016 RMK A01 T02110164  RH  074%=      5-min Rain = 0
KAI1 110759Z 18008KT 21/16 A3016 RMK A01 T02110164  RH  074%=      5-min Rain = 0
KAI1 110800Z 19007KT 21/16 A3016 RMK A01 T02110164  RH  074%=      5-min Rain = 0
KAI1 110801Z 18008KT 21/16 A3016 RMK A01 T02110163  RH  074%=      5-min Rain = 0
KAI1 110802Z 18008KT 21/16 A3016 RMK A01 T02110163  RH  074%=      5-min Rain = 0
KAI1 110803Z 19008KT 21/16 A3016 RMK A01 T02120163  RH  074%=      5-min Rain = 0
KAI1 110804Z 19008KT 21/16 A3016 RMK A01 T02120163  RH  074%=      5-min Rain = 0
KAI1 110805Z 19008KT 21/16 A3016 RMK A01 T02120163  RH  073%=      5-min Rain = 0
KAI1 110806Z 19008KT 21/16 A3016 RMK A01 T02120163  RH  074%=      5-min Rain = 0
KAI1 110807Z 19008KT 21/16 A3016 RMK A01 T02120163  RH  074%=      5-min Rain = 0
KAI1 110808Z 19008KT 21/16 A3016 RMK A01 T02120164  RH  074%=      5-min Rain = 0
KAI1 110809Z 19008KT 21/16 A3016 RMK A01 T02120164  RH  074%=      5-min Rain = 0
KAI1 110810Z 19009KT 21/16 A3016 RMK A01 T02120164  RH  074%=      5-min Rain = 0
KAI1 110811Z 19008KT 21/16 A3016 RMK A01 T02120164  RH  074%=      5-min Rain = 0
KAI1 110812Z 19008KT 21/16 A3016 RMK A01 T02120164  RH  074%=      5-min Rain = 0
KAI1 110813Z 19008KT 21/16 A3016 RMK A01 T02120164  RH  074%=      5-min Rain = 0
KAI1 110814Z 19008KT 21/16 A3016 RMK A01 T02130164  RH  074%=      5-min Rain = 0
KAI1 110815Z 19009KT 21/16 A3016 RMK A01 T02130164  RH  073%=      5-min Rain = 0
KAI1 110816Z 19008KT 21/16 A3016 RMK A01 T02140164  RH  073%=      5-min Rain = 0
KAI1 110817Z 19008KT 21/16 A3016 RMK A01 T02140164  RH  073%=      5-min Rain = 0
KAI1 110818Z 19009KT 21/16 A3016 RMK A01 T02140164  RH  073%=      5-min Rain = 0
KAI1 110819Z 19008KT 22/16 A3016 RMK A01 T02150164  RH  073%=      5-min Rain = 0
KAI1 110820Z 19008KT 22/16 A3016 RMK A01 T02150164  RH  073%=      5-min Rain = 0
KAI1 110821Z 19008KT 22/16 A3016 RMK A01 T02150164  RH  072%=      5-min Rain = 0
KAI1 110822Z 19008KT 22/16 A3016 RMK A01 T02150164  RH  072%=      5-min Rain = 0
KAI1 110823Z 19008KT 22/16 A3016 RMK A01 T02150164  RH  072%=      5-min Rain = 0
KAI1 110824Z 19008KT 22/16 A3016 RMK A01 T02160164  RH  072%=      5-min Rain = 0
KAI1 110825Z 18008KT 22/16 A3016 RMK A01 T02160164  RH  072%=      5-min Rain = 0
KAI1 110826Z 18008KT 22/16 A3016 RMK A01 T02160164  RH  072%=      5-min Rain = 0
KAI1 110827Z 18008KT 22/16 A3016 RMK A01 T02160164  RH  072%=      5-min Rain = 0
KAI1 110828Z 18008KT 22/16 A3016 RMK A01 T02160164  RH  072%=      5-min Rain = 0
KAI1 110829Z 18008KT 22/16 A3016 RMK A01 T02160164  RH  072%=      5-min Rain = 0
KAI1 110830Z 18009KT 22/16 A3016 RMK A01 T02160164  RH  072%=      5-min Rain = 0
KAI1 110831Z 19009KT 22/16 A3016 RMK A01 T02160164  RH  072%=      5-min Rain = 0
KAI1 110832Z 18009KT 22/16 A3016 RMK A01 T02160164  RH  072%=      5-min Rain = 0
KAI1 110833Z 19008KT 22/16 A3015 RMK A01 T02150164  RH  072%=      5-min Rain = 0
KAI1 110834Z 19009KT 22/16 A3015 RMK A01 T02150164  RH  073%=      5-min Rain = 0
KAI1 110835Z 19008KT 22/16 A3015 RMK A01 T02150164  RH  073%=      5-min Rain = 0
KAI1 110836Z 18008KT 21/16 A3015 RMK A01 T02140164  RH  073%=      5-min Rain = 0
KAI1 110837Z 19009KT 21/16 A3015 RMK A01 T02140164  RH  073%=      5-min Rain = 0
KAI1 110838Z 19008KT 21/16 A3015 RMK A01 T02130164  RH  073%=      5-min Rain = 0
KAI1 110839Z 19008KT 21/16 A3015 RMK A01 T02130164  RH  074%=      5-min Rain = 0
KAI1 110840Z 19008KT 21/16 A3015 RMK A01 T02130164  RH  074%=      5-min Rain = 0
KAI1 110841Z 19008KT 21/16 A3015 RMK A01 T02130164  RH  074%=      5-min Rain = 0
KAI1 110842Z 19008KT 21/16 A3015 RMK A01 T02120164  RH  074%=      5-min Rain = 0
KAI1 110843Z 19008KT 21/16 A3015 RMK A01 T02120164  RH  074%=      5-min Rain = 0
KAI1 110844Z 19008KT 21/16 A3016 RMK A01 T02120164  RH  074%=      5-min Rain = 0
KAI1 110845Z 18008KT 21/16 A3016 RMK A01 T02130164  RH  074%=      5-min Rain = 0
KAI1 110846Z 18007KT 21/16 A3016 RMK A01 T02130164  RH  074%=      5-min Rain = 0
KAI1 110847Z 18007KT 21/16 A3016 RMK A01 T02130164  RH  074%=      5-min Rain = 0
KAI1 110848Z 18007KT 21/16 A3016 RMK A01 T02130164  RH  073%=      5-min Rain = 0
KAI1 110849Z 18007KT 21/16 A3016 RMK A01 T02130164  RH  073%=      5-min Rain = 0
KAI1 110850Z 18007KT 21/16 A3016 RMK A01 T02130164  RH  073%=      5-min Rain = 0
KAI1 110851Z 18006KT 21/16 A3016 RMK A01 T02140164  RH  073%=      5-min Rain = 0
KAI1 110852Z 17007KT 21/16 A3016 RMK A01 T02140164  RH  073%=      5-min Rain = 0
KAI1 110853Z 17007KT 21/17 A3016 RMK A01 T02130165  RH  074%=      5-min Rain = 0
KAI1 110854Z 17007KT 21/17 A3016 RMK A01 T02130165  RH  074%=      5-min Rain = 0
KAI1 110855Z 17007KT 21/17 A3016 RMK A01 T02130165  RH  074%=      5-min Rain = 0
KAI1 110856Z 17007KT 21/17 A3016 RMK A01 T02120165  RH  074%=      5-min Rain = 0
KAI1 110857Z 17007KT 21/17 A3016 RMK A01 T02120165  RH  074%=      5-min Rain = 0
KAI1 110858Z 17007KT 21/17 A3016 RMK A01 T02120165  RH  074%=      5-min Rain = 0
KAI1 110859Z 17007KT 21/17 A3016 RMK A01 T02120165  RH  074%=      5-min Rain = 0
KAI1 110900Z 17007KT 21/16 A3016 RMK A01 T02110164  RH  074%=      5-min Rain = 0
KAI1 110901Z 17007KT 21/17 A3016 RMK A01 T02120165  RH  074%=      5-min Rain = 0
KAI1 110902Z 17007KT 21/16 A3016 RMK A01 T02120164  RH  074%=      5-min Rain = 0
KAI1 110903Z 17007KT 21/17 A3016 RMK A01 T02120165  RH  074%=      5-min Rain = 0
KAI1 110904Z 17007KT 21/17 A3016 RMK A01 T02120165  RH  075%=      5-min Rain = 0
KAI1 110905Z 17007KT 21/17 A3016 RMK A01 T02120165  RH  074%=      5-min Rain = 0
KAI1 110906Z 17006KT 21/17 A3016 RMK A01 T02120165  RH  074%=      5-min Rain = 0
KAI1 110907Z 17007KT 21/17 A3016 RMK A01 T02120165  RH  074%=      5-min Rain = 0
KAI1 110908Z 17006KT 21/17 A3016 RMK A01 T02130165  RH  074%=      5-min Rain = 0
KAI1 110909Z 17007KT 21/17 A3016 RMK A01 T02130165  RH  074%=      5-min Rain = 0
KAI1 110910Z 17007KT 21/17 A3016 RMK A01 T02130165  RH  074%=      5-min Rain = 0
KAI1 110911Z 18007KT 21/17 A3016 RMK A01 T02140166  RH  074%=      5-min Rain = 0
KAI1 110912Z 17007KT 21/17 A3016 RMK A01 T02140165  RH  074%=      5-min Rain = 0
KAI1 110913Z 17007KT 21/17 A3016 RMK A01 T02140165  RH  074%=      5-min Rain = 0
KAI1 110914Z 17008KT 21/17 A3016 RMK A01 T02140165  RH  073%=      5-min Rain = 0
KAI1 110915Z 17007KT 22/17 A3016 RMK A01 T02150165  RH  073%=      5-min Rain = 0
KAI1 110916Z 17007KT 22/17 A3016 RMK A01 T02150165  RH  073%=      5-min Rain = 0
KAI1 110917Z 17007KT 22/17 A3016 RMK A01 T02150166  RH  073%=      5-min Rain = 0
KAI1 110918Z 17007KT 22/17 A3016 RMK A01 T02150166  RH  073%=      5-min Rain = 0
KAI1 110919Z 17006KT 22/17 A3016 RMK A01 T02160166  RH  073%=      5-min Rain = 0
KAI1 110920Z 17006KT 22/17 A3016 RMK A01 T02150166  RH  073%=      5-min Rain = 0
KAI1 110921Z 17006KT 22/17 A3016 RMK A01 T02150166  RH  073%=      5-min Rain = 0
KAI1 110922Z 17006KT 22/17 A3016 RMK A01 T02150166  RH  074%=      5-min Rain = 0
KAI1 110923Z 17006KT 22/17 A3016 RMK A01 T02150166  RH  074%=      5-min Rain = 0
KAI1 110924Z 17006KT 22/17 A3016 RMK A01 T02150167  RH  074%=      5-min Rain = 0
KAI1 110925Z 17006KT 22/17 A3016 RMK A01 T02150166  RH  074%=      5-min Rain = 0
KAI1 110926Z 17006KT 22/17 A3016 RMK A01 T02150167  RH  074%=      5-min Rain = 0
KAI1 110927Z 17006KT 22/17 A3016 RMK A01 T02150166  RH  074%=      5-min Rain = 0
KAI1 110928Z 18006KT 22/17 A3016 RMK A01 T02150166  RH  074%=      5-min Rain = 0
KAI1 110929Z 18006KT 21/17 A3016 RMK A01 T02140166  RH  074%=      5-min Rain = 0
KAI1 110930Z 18005KT 22/17 A3016 RMK A01 T02150166  RH  074%=      5-min Rain = 0
KAI1 110931Z 18005KT 21/17 A3016 RMK A01 T02140166  RH  074%=      5-min Rain = 0
KAI1 110932Z 18005KT 21/17 A3016 RMK A01 T02140166  RH  074%=      5-min Rain = 0
KAI1 110933Z 18005KT 21/17 A3016 RMK A01 T02140166  RH  074%=      5-min Rain = 0
KAI1 110934Z 18005KT 21/17 A3016 RMK A01 T02130166  RH  074%=      5-min Rain = 0
KAI1 110935Z 18005KT 21/17 A3016 RMK A01 T02130166  RH  074%=      5-min Rain = 0
KAI1 110936Z 18005KT 21/17 A3016 RMK A01 T02130166  RH  074%=      5-min Rain = 0
KAI1 110937Z 18005KT 21/17 A3016 RMK A01 T02130166  RH  074%=      5-min Rain = 0
KAI1 110938Z 18004KT 21/17 A3016 RMK A01 T02130166  RH  074%=      5-min Rain = 0
KAI1 110939Z 18004KT 21/17 A3016 RMK A01 T02130166  RH  075%=      5-min Rain = 0
KAI1 110940Z 18004KT 21/17 A3016 RMK A01 T02120165  RH  075%=      5-min Rain = 0
KAI1 110941Z 18004KT 21/17 A3016 RMK A01 T02120166  RH  075%=      5-min Rain = 0
KAI1 110942Z 18004KT 21/17 A3016 RMK A01 T02120166  RH  075%=      5-min Rain = 0
KAI1 110943Z 18004KT 21/17 A3016 RMK A01 T02110166  RH  075%=      5-min Rain = 0
KAI1 110944Z 17004KT 21/17 A3016 RMK A01 T02110166  RH  075%=      5-min Rain = 0
KAI1 110945Z 17004KT 21/17 A3016 RMK A01 T02100166  RH  076%=      5-min Rain = 0
KAI1 110946Z 17004KT 21/17 A3016 RMK A01 T02100166  RH  076%=      5-min Rain = 0
KAI1 110947Z 17004KT 21/17 A3016 RMK A01 T02100166  RH  076%=      5-min Rain = 0
KAI1 110948Z 16004KT 21/17 A3016 RMK A01 T02090166  RH  076%=      5-min Rain = 0
KAI1 110949Z 16004KT 21/17 A3016 RMK A01 T02090167  RH  077%=      5-min Rain = 0
KAI1 110950Z 16004KT 21/17 A3016 RMK A01 T02080167  RH  077%=      5-min Rain = 0
KAI1 110951Z 17004KT 21/17 A3016 RMK A01 T02080167  RH  077%=      5-min Rain = 0
KAI1 110952Z 16004KT 21/17 A3016 RMK A01 T02080167  RH  077%=      5-min Rain = 0
KAI1 110953Z 17004KT 21/17 A3016 RMK A01 T02070167  RH  078%=      5-min Rain = 0
KAI1 110954Z 17004KT 21/17 A3016 RMK A01 T02070167  RH  078%=      5-min Rain = 0
KAI1 110955Z 16004KT 21/17 A3016 RMK A01 T02060167  RH  078%=      5-min Rain = 0
KAI1 110956Z 17004KT 21/17 A3016 RMK A01 T02060167  RH  078%=      5-min Rain = 0
KAI1 110957Z 17004KT 21/17 A3015 RMK A01 T02050167  RH  079%=      5-min Rain = 0
KAI1 110958Z 17004KT 21/17 A3015 RMK A01 T02050167  RH  079%=      5-min Rain = 0
KAI1 110959Z 17004KT 20/17 A3015 RMK A01 T02040167  RH  079%=      5-min Rain = 0
KAI1 111000Z 17004KT 20/17 A3015 RMK A01 T02040166  RH  079%=      5-min Rain = 0
KAI1 111001Z 17004KT 20/17 A3015 RMK A01 T02040167  RH  079%=      5-min Rain = 0
KAI1 111002Z 17004KT 20/17 A3015 RMK A01 T02030166  RH  079%=      5-min Rain = 0
KAI1 111003Z 17004KT 20/17 A3015 RMK A01 T02030166  RH  079%=      5-min Rain = 0
KAI1 111004Z 17004KT 20/17 A3015 RMK A01 T02030166  RH  079%=      5-min Rain = 0
KAI1 111005Z 17005KT 20/17 A3015 RMK A01 T02030166  RH  079%=      5-min Rain = 0
KAI1 111006Z 17004KT 20/17 A3015 RMK A01 T02030166  RH  079%=      5-min Rain = 0
KAI1 111007Z 17004KT 20/17 A3015 RMK A01 T02030166  RH  080%=      5-min Rain = 0
KAI1 111008Z 17004KT 20/17 A3015 RMK A01 T02020166  RH  080%=      5-min Rain = 0
KAI1 111009Z 17005KT 20/17 A3015 RMK A01 T02020166  RH  080%=      5-min Rain = 0
KAI1 111010Z 17005KT 20/17 A3015 RMK A01 T02020166  RH  080%=      5-min Rain = 0
KAI1 111011Z 17005KT 20/17 A3015 RMK A01 T02020166  RH  080%=      5-min Rain = 0
KAI1 111012Z 17005KT 20/17 A3015 RMK A01 T02020166  RH  080%=      5-min Rain = 0
KAI1 111013Z 17005KT 20/17 A3015 RMK A01 T02020166  RH  080%=      5-min Rain = 0
KAI1 111014Z 18005KT 20/17 A3015 RMK A01 T02020166  RH  080%=      5-min Rain = 0
KAI1 111015Z 18006KT 20/17 A3015 RMK A01 T02020166  RH  079%=      5-min Rain = 0
KAI1 111016Z 18005KT 20/17 A3015 RMK A01 T02020165  RH  079%=      5-min Rain = 0
KAI1 111017Z 18005KT 20/17 A3015 RMK A01 T02030166  RH  079%=      5-min Rain = 0
KAI1 111018Z 18005KT 20/17 A3015 RMK A01 T02020165  RH  079%=      5-min Rain = 0
KAI1 111019Z 18005KT 20/17 A3015 RMK A01 T02030165  RH  079%=      5-min Rain = 0
KAI1 111020Z 18006KT 20/17 A3015 RMK A01 T02030165  RH  079%=      5-min Rain = 0
KAI1 111021Z 18006KT 20/17 A3015 RMK A01 T02030165  RH  079%=      5-min Rain = 0
KAI1 111022Z 18005KT 20/17 A3015 RMK A01 T02030166  RH  079%=      5-min Rain = 0
KAI1 111023Z 18005KT 20/17 A3015 RMK A01 T02030165  RH  079%=      5-min Rain = 0
KAI1 111024Z 18005KT 20/17 A3015 RMK A01 T02030166  RH  079%=      5-min Rain = 0
KAI1 111025Z 18004KT 20/17 A3015 RMK A01 T02030166  RH  079%=      5-min Rain = 0
KAI1 111026Z 18004KT 20/17 A3015 RMK A01 T02030166  RH  079%=      5-min Rain = 0
KAI1 111027Z 18004KT 20/17 A3015 RMK A01 T02030166  RH  079%=      5-min Rain = 0
KAI1 111028Z 18004KT 20/17 A3015 RMK A01 T02030166  RH  079%=      5-min Rain = 0
KAI1 111029Z 18004KT 20/17 A3015 RMK A01 T02030166  RH  079%=      5-min Rain = 0
KAI1 111030Z 18003KT 20/17 A3015 RMK A01 T02030166  RH  079%=      5-min Rain = 0
KAI1 111031Z 19003KT 20/17 A3015 RMK A01 T02020166  RH  079%=      5-min Rain = 0
KAI1 111032Z 18003KT 20/17 A3015 RMK A01 T02020166  RH  079%=      5-min Rain = 0
KAI1 111033Z 18003KT 20/17 A3015 RMK A01 T02030166  RH  079%=      5-min Rain = 0
KAI1 111034Z 18003KT 20/17 A3015 RMK A01 T02020166  RH  079%=      5-min Rain = 0
KAI1 111035Z 18003KT 20/17 A3015 RMK A01 T02020166  RH  080%=      5-min Rain = 0
KAI1 111036Z 18003KT 20/17 A3015 RMK A01 T02020166  RH  080%=      5-min Rain = 0
KAI1 111037Z 18003KT 20/17 A3015 RMK A01 T02020166  RH  080%=      5-min Rain = 0
KAI1 111038Z 18003KT 20/17 A3015 RMK A01 T02020166  RH  080%=      5-min Rain = 0
KAI1 111039Z 18004KT 20/17 A3015 RMK A01 T02020166  RH  080%=      5-min Rain = 0
KAI1 111040Z 18004KT 20/17 A3015 RMK A01 T02020167  RH  080%=      5-min Rain = 0
KAI1 111041Z 17004KT 20/17 A3015 RMK A01 T02020166  RH  080%=      5-min Rain = 0
KAI1 111042Z 17004KT 20/17 A3015 RMK A01 T02020167  RH  080%=      5-min Rain = 0
KAI1 111043Z 17005KT 20/17 A3015 RMK A01 T02020167  RH  080%=      5-min Rain = 0
KAI1 111044Z 17004KT 20/17 A3015 RMK A01 T02020167  RH  080%=      5-min Rain = 0
KAI1 111045Z 17004KT 20/17 A3015 RMK A01 T02020168  RH  080%=      5-min Rain = 0
KAI1 111046Z 18004KT 20/17 A3015 RMK A01 T02020167  RH  080%=      5-min Rain = 0
KAI1 111047Z 18004KT 20/17 A3015 RMK A01 T02020167  RH  080%=      5-min Rain = 0
KAI1 111048Z 17004KT 20/17 A3015 RMK A01 T02020167  RH  080%=      5-min Rain = 0
KAI1 111049Z 17004KT 20/17 A3015 RMK A01 T02020167  RH  080%=      5-min Rain = 0
KAI1 111050Z 17005KT 20/17 A3015 RMK A01 T02020167  RH  081%=      5-min Rain = 0
KAI1 111051Z 17004KT 20/17 A3015 RMK A01 T02020167  RH  081%=      5-min Rain = 0
KAI1 111052Z 17004KT 20/17 A3015 RMK A01 T02020167  RH  081%=      5-min Rain = 0
KAI1 111053Z 17004KT 20/17 A3015 RMK A01 T02020167  RH  081%=      5-min Rain = 0
KAI1 111054Z 17004KT 20/17 A3015 RMK A01 T02020167  RH  081%=      5-min Rain = 0
KAI1 111055Z 17005KT 20/17 A3015 RMK A01 T02020168  RH  081%=      5-min Rain = 0
KAI1 111056Z 17005KT 20/17 A3015 RMK A01 T02020168  RH  081%=      5-min Rain = 0
KAI1 111057Z 17005KT 20/17 A3015 RMK A01 T02020168  RH  081%=      5-min Rain = 0
KAI1 111058Z 17005KT 20/17 A3015 RMK A01 T02010168  RH  081%=      5-min Rain = 0
KAI1 111059Z 17005KT 20/17 A3015 RMK A01 T02010168  RH  081%=      5-min Rain = 0
KAI1 111100Z 17005KT 20/17 A3015 RMK A01 T02010168  RH  081%=      5-min Rain = 0
KAI1 111101Z 17005KT 20/17 A3015 RMK A01 T02010168  RH  082%=      5-min Rain = 0
KAI1 111102Z 17005KT 20/17 A3015 RMK A01 T02000168  RH  082%=      5-min Rain = 0
KAI1 111103Z 17005KT 20/17 A3015 RMK A01 T02000168  RH  082%=      5-min Rain = 0
KAI1 111104Z 17005KT 20/17 A3015 RMK A01 T02000168  RH  082%=      5-min Rain = 0
KAI1 111105Z 18005KT 20/17 A3015 RMK A01 T02000168  RH  082%=      5-min Rain = 0
KAI1 111106Z 18005KT 20/17 A3015 RMK A01 T02000168  RH  082%=      5-min Rain = 0
KAI1 111107Z 18005KT 20/17 A3015 RMK A01 T02000168  RH  082%=      5-min Rain = 0
KAI1 111108Z 18006KT 20/17 A3015 RMK A01 T02000168  RH  082%=      5-min Rain = 0
KAI1 111109Z 18005KT 20/17 A3015 RMK A01 T02000168  RH  082%=      5-min Rain = 0
KAI1 111110Z 18005KT 20/17 A3015 RMK A01 T02000167  RH  082%=      5-min Rain = 0
KAI1 111111Z 18006KT 20/17 A3015 RMK A01 T02000167  RH  082%=      5-min Rain = 0
KAI1 111112Z 18006KT 20/17 A3015 RMK A01 T02000167  RH  082%=      5-min Rain = 0
KAI1 111113Z 18006KT 20/17 A3015 RMK A01 T01990167  RH  082%=      5-min Rain = 0
KAI1 111114Z 18005KT 20/17 A3015 RMK A01 T01990167  RH  081%=      5-min Rain = 0
KAI1 111115Z 18005KT 20/17 A3015 RMK A01 T01990167  RH  081%=      5-min Rain = 0
KAI1 111116Z 18005KT 20/17 A3015 RMK A01 T01990166  RH  081%=      5-min Rain = 0
KAI1 111117Z 18005KT 20/17 A3015 RMK A01 T01990166  RH  081%=      5-min Rain = 0
KAI1 111118Z 18005KT 20/17 A3015 RMK A01 T01990166  RH  081%=      5-min Rain = 0
KAI1 111119Z 18005KT 20/17 A3015 RMK A01 T01990166  RH  081%=      5-min Rain = 0
KAI1 111120Z 18005KT 20/17 A3015 RMK A01 T01980166  RH  081%=      5-min Rain = 0
KAI1 111121Z 18005KT 20/17 A3015 RMK A01 T01980166  RH  081%=      5-min Rain = 0
KAI1 111122Z 19005KT 20/17 A3015 RMK A01 T01980166  RH  081%=      5-min Rain = 0
KAI1 111123Z 19005KT 20/17 A3015 RMK A01 T01990166  RH  081%=      5-min Rain = 0
KAI1 111124Z 19005KT 20/17 A3015 RMK A01 T01990166  RH  081%=      5-min Rain = 0
KAI1 111125Z 19005KT 20/17 A3015 RMK A01 T01990166  RH  081%=      5-min Rain = 0
KAI1 111126Z 19005KT 20/17 A3015 RMK A01 T01980165  RH  081%=      5-min Rain = 0
KAI1 111127Z 19006KT 20/17 A3015 RMK A01 T01980165  RH  081%=      5-min Rain = 0
KAI1 111128Z 19006KT 20/17 A3015 RMK A01 T01980165  RH  081%=      5-min Rain = 0
KAI1 111129Z 19006KT 20/17 A3015 RMK A01 T01970165  RH  082%=      5-min Rain = 0
KAI1 111130Z 19006KT 20/17 A3015 RMK A01 T01970165  RH  082%=      5-min Rain = 0
KAI1 111131Z 19006KT 20/17 A3015 RMK A01 T01970165  RH  082%=      5-min Rain = 0
KAI1 111132Z 19005KT 20/17 A3015 RMK A01 T01970165  RH  082%=      5-min Rain = 0
KAI1 111133Z 19006KT 20/17 A3015 RMK A01 T01960165  RH  082%=      5-min Rain = 0
KAI1 111134Z 19005KT 20/17 A3015 RMK A01 T01960165  RH  082%=      5-min Rain = 0
KAI1 111135Z 20005KT 20/17 A3015 RMK A01 T01960165  RH  082%=      5-min Rain = 0
KAI1 111136Z 20005KT 20/17 A3015 RMK A01 T01960165  RH  082%=      5-min Rain = 0
KAI1 111137Z 20004KT 20/17 A3015 RMK A01 T01950165  RH  082%=      5-min Rain = 0
KAI1 111138Z 20005KT 20/16 A3015 RMK A01 T01950164  RH  083%=      5-min Rain = 0
KAI1 111139Z 20004KT 20/17 A3015 RMK A01 T01950165  RH  083%=      5-min Rain = 0
KAI1 111140Z 21004KT 19/16 A3015 RMK A01 T01930164  RH  083%=      5-min Rain = 0
KAI1 111141Z 21003KT 19/16 A3015 RMK A01 T01920163  RH  083%=      5-min Rain = 0
KAI1 111142Z 21003KT 19/16 A3015 RMK A01 T01910162  RH  083%=      5-min Rain = 0
KAI1 111143Z 22004KT 19/16 A3015 RMK A01 T01900162  RH  084%=      5-min Rain = 0
KAI1 111144Z 21004KT 19/16 A3016 RMK A01 T01890162  RH  084%=      5-min Rain = 0
KAI1 111145Z 21005KT 19/16 A3016 RMK A01 T01890163  RH  085%=      5-min Rain = 0
KAI1 111146Z 21005KT 19/16 A3016 RMK A01 T01890163  RH  085%=      5-min Rain = 0
KAI1 111147Z 21005KT 19/16 A3016 RMK A01 T01890163  RH  085%=      5-min Rain = 0
KAI1 111148Z 21005KT 19/16 A3016 RMK A01 T01890163  RH  085%=      5-min Rain = 0
KAI1 111149Z 21005KT 19/16 A3016 RMK A01 T01890163  RH  085%=      5-min Rain = 0
KAI1 111150Z 21005KT 19/16 A3016 RMK A01 T01890163  RH  085%=      5-min Rain = 0
KAI1 111151Z 21005KT 19/16 A3016 RMK A01 T01880163  RH  085%=      5-min Rain = 0
KAI1 111152Z 20005KT 19/16 A3016 RMK A01 T01880162  RH  085%=      5-min Rain = 0
KAI1 111153Z 21005KT 19/16 A3016 RMK A01 T01870162  RH  085%=      5-min Rain = 0
KAI1 111154Z 21005KT 19/16 A3016 RMK A01 T01870162  RH  086%=      5-min Rain = 0
KAI1 111155Z 21005KT 19/16 A3016 RMK A01 T01860162  RH  086%=      5-min Rain = 0
KAI1 111156Z 20005KT 19/16 A3016 RMK A01 T01860162  RH  086%=      5-min Rain = 0
KAI1 111157Z 20005KT 19/16 A3016 RMK A01 T01860163  RH  086%=      5-min Rain = 0
KAI1 111158Z 20005KT 19/16 A3016 RMK A01 T01860163  RH  086%=      5-min Rain = 0
KAI1 111159Z 20005KT 19/16 A3016 RMK A01 T01860163  RH  086%=      5-min Rain = 0
KAI1 111200Z 20005KT 19/16 A3016 RMK A01 T01860163  RH  086%=      5-min Rain = 0
KAI1 111201Z 20004KT 19/16 A3016 RMK A01 T01860163  RH  087%=      5-min Rain = 0
KAI1 111202Z 20004KT 19/16 A3016 RMK A01 T01850163  RH  087%=      5-min Rain = 0
KAI1 111203Z 20004KT 19/16 A3016 RMK A01 T01850163  RH  086%=      5-min Rain = 0
KAI1 111204Z 19005KT 19/16 A3016 RMK A01 T01850163  RH  086%=      5-min Rain = 0
KAI1 111205Z 19004KT 19/16 A3016 RMK A01 T01860163  RH  087%=      5-min Rain = 0
KAI1 111206Z 19004KT 19/16 A3016 RMK A01 T01860164  RH  087%=      5-min Rain = 0
KAI1 111207Z 19005KT 19/17 A3016 RMK A01 T01880165  RH  087%=      5-min Rain = 0
KAI1 111208Z 19005KT 19/17 A3016 RMK A01 T01900166  RH  086%=      5-min Rain = 0
KAI1 111209Z 19004KT 19/17 A3016 RMK A01 T01910166  RH  085%=      5-min Rain = 0
KAI1 111210Z 18004KT 19/17 A3016 RMK A01 T01930167  RH  085%=      5-min Rain = 0
KAI1 111211Z 19004KT 20/17 A3016 RMK A01 T01950167  RH  084%=      5-min Rain = 0
KAI1 111212Z 19005KT 20/17 A3016 RMK A01 T01960167  RH  084%=      5-min Rain = 0
KAI1 111213Z 19005KT 20/17 A3016 RMK A01 T01960167  RH  083%=      5-min Rain = 0
KAI1 111214Z 18005KT 20/17 A3016 RMK A01 T01970167  RH  083%=      5-min Rain = 0
KAI1 111215Z 19005KT 20/17 A3016 RMK A01 T01970167  RH  083%=      5-min Rain = 0
KAI1 111216Z 18005KT 20/17 A3016 RMK A01 T01970167  RH  083%=      5-min Rain = 0
KAI1 111217Z 19005KT 20/17 A3016 RMK A01 T01980167  RH  083%=      5-min Rain = 0
KAI1 111218Z 18006KT 20/17 A3016 RMK A01 T01980168  RH  083%=      5-min Rain = 0
KAI1 111219Z 18005KT 20/17 A3016 RMK A01 T01980168  RH  083%=      5-min Rain = 0
KAI1 111220Z 18006KT 20/17 A3016 RMK A01 T01990168  RH  083%=      5-min Rain = 0
KAI1 111221Z 18006KT 20/17 A3016 RMK A01 T01990168  RH  082%=      5-min Rain = 0
KAI1 111222Z 18006KT 20/17 A3016 RMK A01 T02000168  RH  082%=      5-min Rain = 0
KAI1 111223Z 18005KT 20/17 A3016 RMK A01 T02000168  RH  082%=      5-min Rain = 0
KAI1 111224Z 18005KT 20/17 A3016 RMK A01 T02000169  RH  082%=      5-min Rain = 0
KAI1 111225Z 18005KT 20/17 A3016 RMK A01 T02000169  RH  082%=      5-min Rain = 0
KAI1 111226Z 18005KT 20/17 A3016 RMK A01 T02000169  RH  082%=      5-min Rain = 0
KAI1 111227Z 18006KT 20/17 A3016 RMK A01 T02000169  RH  082%=      5-min Rain = 0
KAI1 111228Z 18006KT 20/17 A3016 RMK A01 T02000169  RH  082%=      5-min Rain = 0
KAI1 111229Z 18005KT 20/17 A3016 RMK A01 T02000168  RH  082%=      5-min Rain = 0
KAI1 111230Z 18006KT 20/17 A3016 RMK A01 T02000168  RH  082%=      5-min Rain = 0
KAI1 111231Z 18005KT 20/17 A3016 RMK A01 T02000168  RH  082%=      5-min Rain = 0
KAI1 111232Z 18005KT 20/17 A3016 RMK A01 T02010168  RH  082%=      5-min Rain = 0
KAI1 111233Z 19005KT 20/17 A3016 RMK A01 T02010168  RH  082%=      5-min Rain = 0
KAI1 111234Z 18006KT 20/17 A3016 RMK A01 T02010168  RH  081%=      5-min Rain = 0
KAI1 111235Z 19005KT 20/17 A3016 RMK A01 T02020169  RH  081%=      5-min Rain = 0
KAI1 111236Z 18006KT 20/17 A3016 RMK A01 T02020168  RH  081%=      5-min Rain = 0
KAI1 111237Z 18006KT 20/17 A3016 RMK A01 T02030168  RH  080%=      5-min Rain = 0
KAI1 111238Z 18005KT 20/17 A3016 RMK A01 T02040168  RH  080%=      5-min Rain = 0
KAI1 111239Z 19005KT 20/17 A3016 RMK A01 T02040168  RH  080%=      5-min Rain = 0
KAI1 111240Z 18006KT 20/17 A3016 RMK A01 T02040168  RH  080%=      5-min Rain = 0
KAI1 111241Z 19005KT 21/17 A3016 RMK A01 T02050168  RH  080%=      5-min Rain = 0
KAI1 111242Z 19005KT 21/17 A3016 RMK A01 T02050168  RH  079%=      5-min Rain = 0
KAI1 111243Z 19005KT 21/17 A3016 RMK A01 T02060169  RH  079%=      5-min Rain = 0
KAI1 111244Z 19005KT 21/17 A3016 RMK A01 T02060168  RH  079%=      5-min Rain = 0
KAI1 111245Z 19005KT 21/17 A3016 RMK A01 T02060168  RH  078%=      5-min Rain = 0
KAI1 111246Z 19005KT 21/17 A3016 RMK A01 T02070168  RH  078%=      5-min Rain = 0
KAI1 111247Z 19005KT 21/17 A3016 RMK A01 T02080168  RH  078%=      5-min Rain = 0
KAI1 111248Z 19005KT 21/17 A3016 RMK A01 T02080168  RH  078%=      5-min Rain = 0
KAI1 111249Z 19005KT 21/17 A3016 RMK A01 T02090168  RH  077%=      5-min Rain = 0
KAI1 111250Z 19005KT 21/17 A3016 RMK A01 T02090168  RH  077%=      5-min Rain = 0
KAI1 111251Z 19005KT 21/17 A3016 RMK A01 T02100167  RH  077%=      5-min Rain = 0
KAI1 111252Z 20005KT 21/17 A3016 RMK A01 T02100167  RH  076%=      5-min Rain = 0
KAI1 111253Z 19005KT 21/17 A3016 RMK A01 T02110167  RH  076%=      5-min Rain = 0
KAI1 111254Z 19005KT 21/17 A3016 RMK A01 T02120167  RH  076%=      5-min Rain = 0
KAI1 111255Z 20005KT 21/17 A3016 RMK A01 T02130168  RH  076%=      5-min Rain = 0
KAI1 111256Z 19006KT 21/17 A3016 RMK A01 T02140168  RH  075%=      5-min Rain = 0
KAI1 111257Z 20005KT 22/17 A3016 RMK A01 T02150167  RH  074%=      5-min Rain = 0
KAI1 111258Z 19006KT 22/17 A3016 RMK A01 T02170166  RH  073%=      5-min Rain = 0
KAI1 111259Z 19006KT 22/17 A3016 RMK A01 T02180166  RH  072%=      5-min Rain = 0
KAI1 111300Z 19007KT 22/17 A3016 RMK A01 T02190166  RH  072%=      5-min Rain = 0
KAI1 111301Z 19007KT 22/17 A3016 RMK A01 T02200166  RH  071%=      5-min Rain = 0
KAI1 111302Z 19007KT 22/17 A3017 RMK A01 T02200166  RH  071%=      5-min Rain = 0
KAI1 111303Z 19006KT 22/17 A3017 RMK A01 T02200165  RH  071%=      5-min Rain = 0
KAI1 111304Z 19007KT 22/17 A3016 RMK A01 T02200165  RH  071%=      5-min Rain = 0
KAI1 111305Z 20006KT 22/17 A3016 RMK A01 T02200165  RH  071%=      5-min Rain = 0
KAI1 111306Z 19007KT 22/17 A3016 RMK A01 T02200165  RH  071%=      5-min Rain = 0
KAI1 111307Z 19008KT 22/16 A3016 RMK A01 T02200164  RH  070%=      5-min Rain = 0
KAI1 111308Z 19008KT 22/16 A3016 RMK A01 T02200163  RH  070%=      5-min Rain = 0
KAI1 111309Z 19007KT 22/16 A3016 RMK A01 T02200163  RH  070%=      5-min Rain = 0
KAI1 111310Z 20008KT 22/16 A3016 RMK A01 T02200163  RH  070%=      5-min Rain = 0
KAI1 111311Z 19008KT 22/16 A3017 RMK A01 T02200163  RH  070%=      5-min Rain = 0
KAI1 111312Z 19008KT 22/16 A3017 RMK A01 T02210162  RH  070%=      5-min Rain = 0
KAI1 111313Z 19008KT 22/16 A3017 RMK A01 T02210162  RH  069%=      5-min Rain = 0
KAI1 111314Z 19007KT 22/16 A3017 RMK A01 T02210162  RH  069%=      5-min Rain = 0
KAI1 111315Z 19009KT 22/16 A3017 RMK A01 T02220162  RH  069%=      5-min Rain = 0
KAI1 111316Z 19008KT 22/16 A3017 RMK A01 T02220161  RH  069%=      5-min Rain = 0
KAI1 111317Z 19009KT 22/16 A3017 RMK A01 T02230162  RH  068%=      5-min Rain = 0
KAI1 111318Z 19009KT 22/16 A3017 RMK A01 T02230161  RH  068%=      5-min Rain = 0
KAI1 111319Z 19009KT 22/16 A3017 RMK A01 T02240161  RH  067%=      5-min Rain = 0
KAI1 111320Z 20009KT 23/16 A3017 RMK A01 T02250161  RH  067%=      5-min Rain = 0
KAI1 111321Z 19008KT 23/16 A3017 RMK A01 T02250161  RH  067%=      5-min Rain = 0
KAI1 111322Z 19008KT 23/16 A3017 RMK A01 T02260161  RH  067%=      5-min Rain = 0
KAI1 111323Z 19008KT 23/16 A3017 RMK A01 T02270162  RH  067%=      5-min Rain = 0
KAI1 111324Z 19009KT 23/16 A3017 RMK A01 T02270161  RH  066%=      5-min Rain = 0
KAI1 111325Z 20008KT 23/16 A3017 RMK A01 T02280161  RH  066%=      5-min Rain = 0
KAI1 111326Z 19008KT 23/16 A3017 RMK A01 T02290161  RH  065%=      5-min Rain = 0
KAI1 111327Z 19008KT 23/16 A3017 RMK A01 T02300160  RH  065%=      5-min Rain = 0
KAI1 111328Z 19007KT 23/16 A3017 RMK A01 T02320161  RH  065%=      5-min Rain = 0
KAI1 111329Z 19008KT 23/16 A3017 RMK A01 T02330160  RH  064%=      5-min Rain = 0
KAI1 111330Z 19008KT 24/16 A3017 RMK A01 T02350161  RH  063%=      5-min Rain = 0
KAI1 111331Z 19009KT 24/16 A3017 RMK A01 T02360160  RH  062%=      5-min Rain = 0
KAI1 111332Z 19009KT 24/16 A3017 RMK A01 T02370159  RH  062%=      5-min Rain = 0
KAI1 111333Z 20010KT 24/16 A3017 RMK A01 T02370159  RH  061%=      5-min Rain = 0
KAI1 111334Z 19008KT 24/16 A3017 RMK A01 T02380160  RH  062%=      5-min Rain = 0
KAI1 111335Z 19009KT 24/16 A3017 RMK A01 T02380159  RH  061%=      5-min Rain = 0
KAI1 111336Z 19010KT 24/16 A3017 RMK A01 T02390159  RH  061%=      5-min Rain = 0
KAI1 111337Z 19010KT 24/16 A3017 RMK A01 T02380159  RH  061%=      5-min Rain = 0
KAI1 111338Z 20010KT 24/16 A3017 RMK A01 T02380159  RH  061%=      5-min Rain = 0
KAI1 111339Z 20010KT 24/16 A3017 RMK A01 T02380160  RH  062%=      5-min Rain = 0
KAI1 111340Z 20011KT 24/16 A3017 RMK A01 T02370159  RH  061%=      5-min Rain = 0
KAI1 111341Z 20010KT 24/16 A3017 RMK A01 T02370159  RH  061%=      5-min Rain = 0
KAI1 111342Z 21009KT 24/16 A3017 RMK A01 T02380160  RH  062%=      5-min Rain = 0
KAI1 111343Z 20009KT 24/16 A3017 RMK A01 T02390161  RH  061%=      5-min Rain = 0
KAI1 111344Z 20008KT 24/16 A3017 RMK A01 T02400161  RH  061%=      5-min Rain = 0
KAI1 111345Z 20008KT 24/16 A3017 RMK A01 T02420161  RH  061%=      5-min Rain = 0
KAI1 111346Z 20008KT 24/16 A3017 RMK A01 T02430161  RH  060%=      5-min Rain = 0
KAI1 111347Z 20008KT 24/16 A3017 RMK A01 T02430162  RH  061%=      5-min Rain = 0
KAI1 111348Z 20007KT 24/16 A3017 RMK A01 T02430162  RH  060%=      5-min Rain = 0
KAI1 111349Z 19008KT 25/16 A3017 RMK A01 T02450163  RH  060%=      5-min Rain = 0
KAI1 111350Z 20009KT 25/16 A3017 RMK A01 T02450162  RH  060%=      5-min Rain = 0
KAI1 111351Z 20009KT 25/16 A3017 RMK A01 T02460162  RH  059%=      5-min Rain = 0
KAI1 111352Z 20010KT 25/16 A3017 RMK A01 T02470162  RH  059%=      5-min Rain = 0
KAI1 111353Z 20011KT 25/16 A3017 RMK A01 T02480161  RH  058%=      5-min Rain = 0
KAI1 111354Z 20014KT 25/16 A3017 RMK A01 T02480160  RH  058%=      5-min Rain = 0
KAI1 111355Z 20013KT 25/16 A3017 RMK A01 T02480158  RH  057%=      5-min Rain = 0
KAI1 111356Z 20013KT 25/16 A3017 RMK A01 T02470158  RH  058%=      5-min Rain = 0
KAI1 111357Z 20014KT 25/16 A3017 RMK A01 T02470158  RH  057%=      5-min Rain = 0
KAI1 111358Z 20013KT 25/16 A3017 RMK A01 T02470158  RH  058%=      5-min Rain = 0
KAI1 111359Z 20012KT 25/16 A3018 RMK A01 T02470158  RH  058%=      5-min Rain = 0
KAI1 111400Z 20010KT 25/16 A3018 RMK A01 T02470159  RH  058%=      5-min Rain = 0
KAI1 111401Z 20009KT 25/16 A3018 RMK A01 T02470160  RH  058%=      5-min Rain = 0
KAI1 111402Z 20011KT 25/16 A3018 RMK A01 T02480159  RH  058%=      5-min Rain = 0
KAI1 111403Z 20013KT 25/16 A3018 RMK A01 T02470159  RH  058%=      5-min Rain = 0
KAI1 111404Z 20011KT 25/16 A3018 RMK A01 T02470160  RH  058%=      5-min Rain = 0
KAI1 111405Z 19009KT 25/16 A3018 RMK A01 T02470160  RH  058%=      5-min Rain = 0
KAI1 111406Z 19009KT 25/16 A3018 RMK A01 T02470161  RH  059%=      5-min Rain = 0
KAI1 111407Z 20013KT 25/16 A3018 RMK A01 T02480160  RH  058%=      5-min Rain = 0
KAI1 111408Z 20012KT 25/16 A3018 RMK A01 T02480159  RH  058%=      5-min Rain = 0
KAI1 111409Z 20012KT 25/16 A3018 RMK A01 T02480159  RH  058%=      5-min Rain = 0
KAI1 111410Z 20012KT 25/16 A3018 RMK A01 T02480159  RH  058%=      5-min Rain = 0
KAI1 111411Z 19009KT 25/16 A3018 RMK A01 T02480160  RH  058%=      5-min Rain = 0
KAI1 111412Z 20011KT 25/16 A3018 RMK A01 T02480161  RH  058%=      5-min Rain = 0
KAI1 111413Z 19011KT 25/16 A3018 RMK A01 T02480160  RH  058%=      5-min Rain = 0
KAI1 111414Z 19013KT 25/16 A3018 RMK A01 T02480159  RH  058%=      5-min Rain = 0
KAI1 111415Z 19012KT 25/16 A3018 RMK A01 T02480158  RH  057%=      5-min Rain = 0
KAI1 111416Z 20012KT 25/16 A3018 RMK A01 T02480159  RH  058%=      5-min Rain = 0
KAI1 111417Z 20011KT 25/16 A3018 RMK A01 T02490160  RH  058%=      5-min Rain = 0
KAI1 111418Z 19010KT 25/16 A3018 RMK A01 T02490160  RH  058%=      5-min Rain = 0
KAI1 111419Z 19010KT 25/16 A3018 RMK A01 T02490161  RH  058%=      5-min Rain = 0
KAI1 111420Z 19012KT 25/16 A3018 RMK A01 T02490160  RH  057%=      5-min Rain = 0
KAI1 111421Z 19011KT 25/16 A3018 RMK A01 T02490160  RH  058%=      5-min Rain = 0
KAI1 111422Z 19011KT 25/16 A3018 RMK A01 T02490161  RH  058%=      5-min Rain = 0
KAI1 111423Z 20010KT 25/16 A3018 RMK A01 T02490161  RH  058%=      5-min Rain = 0
KAI1 111424Z 19012KT 25/16 A3018 RMK A01 T02500160  RH  057%=      5-min Rain = 0
KAI1 111425Z 20012KT 25/16 A3018 RMK A01 T02500159  RH  057%=      5-min Rain = 0
KAI1 111426Z 19011KT 25/16 A3018 RMK A01 T02500160  RH  057%=      5-min Rain = 0
KAI1 111427Z 19011KT 25/16 A3018 RMK A01 T02510161  RH  057%=      5-min Rain = 0
KAI1 111428Z 19013KT 25/16 A3018 RMK A01 T02530160  RH  056%=      5-min Rain = 0
KAI1 111429Z 19011KT 25/16 A3018 RMK A01 T02540160  RH  056%=      5-min Rain = 0
KAI1 111430Z 19014KT 26/16 A3018 RMK A01 T02560160  RH  055%=      5-min Rain = 0
KAI1 111431Z 19013KT 26/16 A3018 RMK A01 T02560159  RH  055%=      5-min Rain = 0
KAI1 111432Z 20012KT 26/16 A3018 RMK A01 T02550160  RH  056%=      5-min Rain = 0
KAI1 111433Z 20012KT 26/16 A3018 RMK A01 T02550160  RH  056%=      5-min Rain = 0
KAI1 111434Z 19012KT 26/16 A3018 RMK A01 T02560161  RH  056%=      5-min Rain = 0
KAI1 111435Z 20012KT 26/16 A3018 RMK A01 T02570161  RH  055%=      5-min Rain = 0
KAI1 111436Z 19010KT 26/16 A3018 RMK A01 T02580161  RH  055%=      5-min Rain = 0
KAI1 111437Z 19011KT 26/16 A3018 RMK A01 T02590162  RH  055%=      5-min Rain = 0
KAI1 111438Z 19012KT 26/16 A3018 RMK A01 T02620162  RH  054%=      5-min Rain = 0
KAI1 111439Z 19012KT 26/16 A3018 RMK A01 T02630161  RH  053%=      5-min Rain = 0
KAI1 111440Z 19010G15KT 26/16 A3018 RMK A01 T02640160  RH  053%=      5-min Rain = 0
KAI1 111441Z 19009KT 27/16 A3018 RMK A01 T02650162  RH  053%=      5-min Rain = 0
KAI1 111442Z 19011KT 27/16 A3018 RMK A01 T02680162  RH  052%=      5-min Rain = 0
KAI1 111443Z 19012KT 27/16 A3018 RMK A01 T02690161  RH  052%=      5-min Rain = 0
KAI1 111444Z 19012KT 27/16 A3018 RMK A01 T02690161  RH  052%=      5-min Rain = 0
KAI1 111445Z 20010KT 27/16 A3018 RMK A01 T02690161  RH  052%=      5-min Rain = 0
KAI1 111446Z 20011KT 27/16 A3018 RMK A01 T02700162  RH  052%=      5-min Rain = 0
KAI1 111447Z 20010KT 27/16 A3018 RMK A01 T02730162  RH  051%=      5-min Rain = 0
KAI1 111448Z 19013KT 28/16 A3018 RMK A01 T02750162  RH  050%=      5-min Rain = 0
KAI1 111449Z 19012KT 27/16 A3018 RMK A01 T02740162  RH  050%=      5-min Rain = 0
KAI1 111450Z 19011KT 27/16 A3018 RMK A01 T02720162  RH  051%=      5-min Rain = 0
KAI1 111451Z 18011KT 27/16 A3018 RMK A01 T02720162  RH  051%=      5-min Rain = 0
KAI1 111452Z 18012KT 27/16 A3018 RMK A01 T02740164  RH  051%=      5-min Rain = 0
KAI1 111453Z 18014KT 28/16 A3018 RMK A01 T02760163  RH  050%=      5-min Rain = 0
KAI1 111454Z 19013KT 28/16 A3018 RMK A01 T02770162  RH  049%=      5-min Rain = 0
KAI1 111455Z 18013KT 28/16 A3018 RMK A01 T02770162  RH  049%=      5-min Rain = 0
KAI1 111456Z 18012KT 28/16 A3018 RMK A01 T02760161  RH  050%=      5-min Rain = 0
KAI1 111457Z 19009KT 28/16 A3018 RMK A01 T02760163  RH  050%=      5-min Rain = 0
KAI1 111458Z 18012KT 28/17 A3018 RMK A01 T02790165  RH  050%=      5-min Rain = 0
KAI1 111459Z 19013KT 28/16 A3018 RMK A01 T02800162  RH  049%=      5-min Rain = 0
KAI1 111500Z 19012KT 28/16 A3018 RMK A01 T02760161  RH  050%=      5-min Rain = 0
KAI1 111501Z 19014KT 27/16 A3018 RMK A01 T02740161  RH  050%=      5-min Rain = 0
KAI1 111502Z 20010KT 27/16 A3018 RMK A01 T02720160  RH  050%=      5-min Rain = 0
KAI1 111503Z 19010KT 28/16 A3018 RMK A01 T02760163  RH  050%=      5-min Rain = 0
KAI1 111504Z 19011KT 28/16 A3018 RMK A01 T02800162  RH  049%=      5-min Rain = 0
KAI1 111505Z 19009KT 28/16 A3018 RMK A01 T02820163  RH  048%=      5-min Rain = 0
KAI1 111506Z 18010KT 29/16 A3018 RMK A01 T02850161  RH  047%=      5-min Rain = 0
KAI1 111507Z 19010KT 28/16 A3018 RMK A01 T02840162  RH  048%=      5-min Rain = 0
KAI1 111508Z 20010G15KT 28/16 A3018 RMK A01 T02820163  RH  048%=      5-min Rain = 0
KAI1 111509Z 18011KT 28/16 A3018 RMK A01 T02790163  RH  049%=      5-min Rain = 0
KAI1 111510Z 19010KT 28/16 A3018 RMK A01 T02790162  RH  049%=      5-min Rain = 0
KAI1 111511Z 19012KT 28/16 A3018 RMK A01 T02820162  RH  048%=      5-min Rain = 0
KAI1 111512Z 19012KT 28/16 A3018 RMK A01 T02820160  RH  047%=      5-min Rain = 0
KAI1 111513Z 19012KT 28/16 A3018 RMK A01 T02780159  RH  048%=      5-min Rain = 0
KAI1 111514Z 20010KT 27/16 A3018 RMK A01 T02730159  RH  050%=      5-min Rain = 0
KAI1 111515Z 19011KT 27/16 A3018 RMK A01 T02710161  RH  051%=      5-min Rain = 0
KAI1 111516Z 19010KT 27/16 A3018 RMK A01 T02700160  RH  051%=      5-min Rain = 0
KAI1 111517Z 18012KT 27/16 A3018 RMK A01 T02700160  RH  051%=      5-min Rain = 0
KAI1 111518Z 20010KT 27/16 A3018 RMK A01 T02700159  RH  051%=      5-min Rain = 0
KAI1 111519Z 20011KT 27/16 A3018 RMK A01 T02680160  RH  051%=      5-min Rain = 0
KAI1 111520Z 19011KT 27/16 A3018 RMK A01 T02680160  RH  052%=      5-min Rain = 0
KAI1 111521Z 19011KT 27/16 A3018 RMK A01 T02680161  RH  052%=      5-min Rain = 0
KAI1 111522Z 20011KT 27/16 A3018 RMK A01 T02700161  RH  051%=      5-min Rain = 0
KAI1 111523Z 20009KT 27/16 A3018 RMK A01 T02710160  RH  051%=      5-min Rain = 0
KAI1 111524Z 20010KT 27/16 A3018 RMK A01 T02730162  RH  051%=      5-min Rain = 0
KAI1 111525Z 21011KT 28/16 A3018 RMK A01 T02760163  RH  050%=      5-min Rain = 0
KAI1 111526Z 19008KT 28/16 A3018 RMK A01 T02760162  RH  050%=      5-min Rain = 0
KAI1 111527Z 18009KT 28/17 A3018 RMK A01 T02760165  RH  051%=      5-min Rain = 0
KAI1 111528Z 19009KT 28/16 A3018 RMK A01 T02770164  RH  050%=      5-min Rain = 0
KAI1 111529Z 20009KT 28/16 A3018 RMK A01 T02780162  RH  049%=      5-min Rain = 0
KAI1 111530Z 20009KT 28/16 A3018 RMK A01 T02780164  RH  050%=      5-min Rain = 0
KAI1 111531Z 20010KT 28/17 A3018 RMK A01 T02770165  RH  050%=      5-min Rain = 0
KAI1 111532Z 20011KT 28/16 A3018 RMK A01 T02780161  RH  049%=      5-min Rain = 0
KAI1 111533Z 20011KT 28/16 A3018 RMK A01 T02790158  RH  048%=      5-min Rain = 0
KAI1 111534Z 20008KT 28/16 A3018 RMK A01 T02790158  RH  048%=      5-min Rain = 0
KAI1 111535Z 21011KT 28/16 A3018 RMK A01 T02810159  RH  047%=      5-min Rain = 0
KAI1 111536Z 20011KT 28/16 A3018 RMK A01 T02830157  RH  047%=      5-min Rain = 0
KAI1 111537Z 20012KT 28/16 A3018 RMK A01 T02830158  RH  047%=      5-min Rain = 0
KAI1 111538Z 20014KT 28/16 A3018 RMK A01 T02820157  RH  046%=      5-min Rain = 0
KAI1 111539Z 20010KT 28/16 A3018 RMK A01 T02830157  RH  047%=      5-min Rain = 0
KAI1 111540Z 20008KT 28/16 A3018 RMK A01 T02840158  RH  046%=      5-min Rain = 0
KAI1 111541Z 19011G16KT 29/16 A3018 RMK A01 T02860161  RH  047%=      5-min Rain = 0
KAI1 111542Z 19013KT 29/16 A3018 RMK A01 T02890158  RH  045%=      5-min Rain = 0
KAI1 111543Z 19010KT 29/16 A3018 RMK A01 T02880159  RH  046%=      5-min Rain = 0
KAI1 111544Z 20011KT 29/16 A3017 RMK A01 T02890159  RH  045%=      5-min Rain = 0
KAI1 111545Z 19012KT 29/16 A3017 RMK A01 T02900159  RH  045%=      5-min Rain = 0
KAI1 111546Z 20010G15KT 29/16 A3017 RMK A01 T02910160  RH  045%=      5-min Rain = 0
KAI1 111547Z 19010KT 29/16 A3017 RMK A01 T02930161  RH  045%=      5-min Rain = 0
KAI1 111548Z 19012KT 30/16 A3017 RMK A01 T02950161  RH  044%=      5-min Rain = 0
KAI1 111549Z 19012KT 30/16 A3017 RMK A01 T02970158  RH  043%=      5-min Rain = 0
KAI1 111550Z 19010KT 30/16 A3017 RMK A01 T02960160  RH  044%=      5-min Rain = 0
KAI1 111551Z 18010KT 30/16 A3017 RMK A01 T02970160  RH  044%=      5-min Rain = 0
KAI1 111552Z 17010KT 30/17 A3017 RMK A01 T02960167  RH  046%=      5-min Rain = 0
KAI1 111553Z 18009KT 30/17 A3017 RMK A01 T02960169  RH  046%=      5-min Rain = 0
KAI1 111554Z 19011KT 30/16 A3017 RMK A01 T02960161  RH  044%=      5-min Rain = 0
KAI1 111555Z 20012KT 30/15 A3017 RMK A01 T02970153  RH  042%=      5-min Rain = 0
KAI1 111556Z 19010KT 30/15 A3017 RMK A01 T02960153  RH  042%=      5-min Rain = 0
KAI1 111557Z 19012KT 29/16 A3017 RMK A01 T02940157  RH  044%=      5-min Rain = 0
KAI1 111558Z 20011KT 30/16 A3017 RMK A01 T02950156  RH  043%=      5-min Rain = 0
KAI1 111559Z 19010KT 30/16 A3017 RMK A01 T02950157  RH  043%=      5-min Rain = 0
KAI1 111600Z 20012KT 30/16 A3017 RMK A01 T02950156  RH  043%=      5-min Rain = 0
KAI1 111601Z 18012KT 29/16 A3017 RMK A01 T02940156  RH  043%=      5-min Rain = 0
KAI1 111602Z 19012KT 30/16 A3017 RMK A01 T02950155  RH  043%=      5-min Rain = 0
KAI1 111603Z 21012KT 30/16 A3017 RMK A01 T02960156  RH  043%=      5-min Rain = 0
KAI1 111604Z 19012KT 30/16 A3017 RMK A01 T02960157  RH  043%=      5-min Rain = 0
KAI1 111605Z 18010KT 30/16 A3017 RMK A01 T02950159  RH  044%=      5-min Rain = 0
KAI1 111606Z 18011KT 30/16 A3017 RMK A01 T02960159  RH  044%=      5-min Rain = 0
KAI1 111607Z 18013KT 30/16 A3017 RMK A01 T02950158  RH  043%=      5-min Rain = 0
KAI1 111608Z 18011KT 29/16 A3017 RMK A01 T02940158  RH  044%=      5-min Rain = 0
KAI1 111609Z 19009KT 29/16 A3018 RMK A01 T02920159  RH  044%=      5-min Rain = 0
KAI1 111610Z 19010KT 29/16 A3018 RMK A01 T02910161  RH  045%=      5-min Rain = 0
KAI1 111611Z 19010KT 29/16 A3018 RMK A01 T02890161  RH  046%=      5-min Rain = 0
KAI1 111612Z 18009KT 29/16 A3018 RMK A01 T02880160  RH  046%=      5-min Rain = 0
KAI1 111613Z 17011KT 29/16 A3017 RMK A01 T02880162  RH  046%=      5-min Rain = 0
KAI1 111614Z 18011KT 29/17 A3017 RMK A01 T02870165  RH  048%=      5-min Rain = 0
KAI1 111615Z 18011KT 29/16 A3018 RMK A01 T02870160  RH  046%=      5-min Rain = 0
KAI1 111616Z 17010KT 29/16 A3017 RMK A01 T02870161  RH  046%=      5-min Rain = 0
KAI1 111617Z 18009KT 29/16 A3018 RMK A01 T02870161  RH  047%=      5-min Rain = 0
KAI1 111618Z 17009G14KT 29/16 A3018 RMK A01 T02860162  RH  047%=      5-min Rain = 0
KAI1 111619Z 20012KT 29/16 A3018 RMK A01 T02870162  RH  047%=      5-min Rain = 0
KAI1 111620Z 20009KT 29/16 A3018 RMK A01 T02890158  RH  045%=      5-min Rain = 0
KAI1 111621Z 19007KT 29/16 A3018 RMK A01 T02910159  RH  045%=      5-min Rain = 0
KAI1 111622Z 19009KT 30/16 A3018 RMK A01 T02950160  RH  044%=      5-min Rain = 0
KAI1 111623Z 19011KT 30/16 A3018 RMK A01 T02960158  RH  043%=      5-min Rain = 0
KAI1 111624Z 19008KT 30/16 A3018 RMK A01 T02950160  RH  044%=      5-min Rain = 0
KAI1 111625Z 18009KT 30/16 A3018 RMK A01 T02960162  RH  044%=      5-min Rain = 0
KAI1 111626Z 18009KT 30/16 A3018 RMK A01 T02980158  RH  043%=      5-min Rain = 0
KAI1 111627Z 19007KT 30/16 A3018 RMK A01 T02980155  RH  042%=      5-min Rain = 0
KAI1 111628Z 16006KT 30/16 A3018 RMK A01 T02960157  RH  043%=      5-min Rain = 0
KAI1 111629Z 18011KT 30/16 A3017 RMK A01 T02980160  RH  043%=      5-min Rain = 0
KAI1 111630Z 18009KT 30/15 A3017 RMK A01 T02980150  RH  041%=      5-min Rain = 0
KAI1 111631Z 20010KT 30/15 A3018 RMK A01 T02970151  RH  041%=      5-min Rain = 0
KAI1 111632Z 18010KT 29/15 A3017 RMK A01 T02940153  RH  042%=      5-min Rain = 0
KAI1 111633Z 19009KT 29/15 A3018 RMK A01 T02930151  RH  042%=      5-min Rain = 0
KAI1 111634Z 19008KT 29/15 A3018 RMK A01 T02940153  RH  042%=      5-min Rain = 0
KAI1 111635Z 17010KT 30/16 A3017 RMK A01 T02970158  RH  043%=      5-min Rain = 0
KAI1 111636Z 16010KT 30/16 A3017 RMK A01 T02980159  RH  043%=      5-min Rain = 0
KAI1 111637Z 16011KT 30/16 A3017 RMK A01 T02980161  RH  043%=      5-min Rain = 0
KAI1 111638Z 18010KT 30/16 A3017 RMK A01 T02970162  RH  044%=      5-min Rain = 0
KAI1 111639Z 17008KT 30/16 A3017 RMK A01 T02990159  RH  043%=      5-min Rain = 0
KAI1 111640Z 17008KT 30/16 A3017 RMK A01 T03020163  RH  043%=      5-min Rain = 0
KAI1 111641Z 16009KT 30/16 A3017 RMK A01 T03030163  RH  043%=      5-min Rain = 0
KAI1 111642Z 18008KT 30/16 A3017 RMK A01 T03030163  RH  043%=      5-min Rain = 0
KAI1 111643Z 19009KT 30/16 A3017 RMK A01 T03040158  RH  041%=      5-min Rain = 0
KAI1 111644Z 20009KT 30/16 A3017 RMK A01 T03030158  RH  042%=      5-min Rain = 0
KAI1 111645Z 21006KT 30/16 A3017 RMK A01 T02990157  RH  042%=      5-min Rain = 0
KAI1 111646Z 19007KT 30/16 A3017 RMK A01 T02980156  RH  042%=      5-min Rain = 0
KAI1 111647Z 18010KT 30/16 A3017 RMK A01 T03010160  RH  043%=      5-min Rain = 0
KAI1 111648Z 16010KT 30/16 A3017 RMK A01 T03030162  RH  043%=      5-min Rain = 0
KAI1 111649Z 16011KT 30/16 A3017 RMK A01 T03040161  RH  042%=      5-min Rain = 0
KAI1 111650Z 17010KT 30/16 A3017 RMK A01 T03040163  RH  042%=      5-min Rain = 0
KAI1 111651Z 18013KT 30/16 A3017 RMK A01 T03040156  RH  041%=      5-min Rain = 0
KAI1 111652Z 19012KT 30/15 A3017 RMK A01 T03030151  RH  040%=      5-min Rain = 0
KAI1 111653Z 19010KT 30/15 A3017 RMK A01 T03000149  RH  040%=      5-min Rain = 0
KAI1 111654Z 18008KT 30/15 A3017 RMK A01 T02980151  RH  041%=      5-min Rain = 0
KAI1 111655Z 18008KT 30/15 A3017 RMK A01 T02950153  RH  042%=      5-min Rain = 0
KAI1 111656Z 18012KT 29/15 A3017 RMK A01 T02940152  RH  042%=      5-min Rain = 0
KAI1 111657Z 18009KT 29/15 A3017 RMK A01 T02930150  RH  042%=      5-min Rain = 0
KAI1 111658Z 17009KT 29/15 A3017 RMK A01 T02910151  RH  043%=      5-min Rain = 0
KAI1 111659Z 17009KT 29/16 A3017 RMK A01 T02900156  RH  044%=      5-min Rain = 0
KAI1 111700Z 19009KT 29/16 A3017 RMK A01 T02920158  RH  044%=      5-min Rain = 0
KAI1 111701Z 19009KT 30/16 A3017 RMK A01 T02960155  RH  043%=      5-min Rain = 0
KAI1 111702Z 16011KT 30/15 A3017 RMK A01 T02980154  RH  042%=      5-min Rain = 0
KAI1 111703Z 16009KT 30/15 A3017 RMK A01 T02980154  RH  042%=      5-min Rain = 0
KAI1 111704Z 16007KT 30/16 A3017 RMK A01 T02980157  RH  042%=      5-min Rain = 0
KAI1 111705Z 16008KT 30/16 A3017 RMK A01 T02980155  RH  042%=      5-min Rain = 0
KAI1 111706Z 19008KT 30/16 A3017 RMK A01 T02990156  RH  042%=      5-min Rain = 0
KAI1 111707Z 20009KT 30/15 A3016 RMK A01 T02990152  RH  041%=      5-min Rain = 0
KAI1 111708Z 20009KT 30/15 A3016 RMK A01 T03000150  RH  040%=      5-min Rain = 0
KAI1 111709Z 17008KT 30/15 A3016 RMK A01 T03000152  RH  041%=      5-min Rain = 0
KAI1 111710Z 18008KT 30/15 A3016 RMK A01 T03020153  RH  041%=      5-min Rain = 0
KAI1 111711Z 16009KT 30/16 A3016 RMK A01 T03030156  RH  041%=      5-min Rain = 0
KAI1 111712Z 17008KT 30/16 A3016 RMK A01 T03030157  RH  041%=      5-min Rain = 0
KAI1 111713Z 17009KT 30/16 A3016 RMK A01 T03040160  RH  042%=      5-min Rain = 0
KAI1 111714Z 15010KT 31/16 A3016 RMK A01 T03060162  RH  042%=      5-min Rain = 0
KAI1 111715Z 16015KT 31/16 A3016 RMK A01 T03070164  RH  042%=      5-min Rain = 0
KAI1 111716Z 18012KT 31/16 A3016 RMK A01 T03060160  RH  041%=      5-min Rain = 0
KAI1 111717Z 17009KT 30/16 A3016 RMK A01 T03020158  RH  042%=      5-min Rain = 0
KAI1 111718Z 17009KT 30/16 A3016 RMK A01 T03020161  RH  043%=      5-min Rain = 0
KAI1 111719Z 17012KT 30/16 A3016 RMK A01 T03040160  RH  042%=      5-min Rain = 0
KAI1 111720Z 18010KT 31/16 A3016 RMK A01 T03050155  RH  040%=      5-min Rain = 0
KAI1 111721Z 18010KT 31/16 A3016 RMK A01 T03060156  RH  040%=      5-min Rain = 0
KAI1 111722Z 16010KT 31/16 A3016 RMK A01 T03100158  RH  040%=      5-min Rain = 0
KAI1 111723Z 17012KT 31/16 A3016 RMK A01 T03110157  RH  039%=      5-min Rain = 0
KAI1 111724Z 17010KT 31/15 A3016 RMK A01 T03110153  RH  038%=      5-min Rain = 0
KAI1 111725Z 16009KT 31/15 A3016 RMK A01 T03100151  RH  038%=      5-min Rain = 0
KAI1 111726Z 16008KT 31/16 A3016 RMK A01 T03100155  RH  039%=      5-min Rain = 0
KAI1 111727Z 17012G18KT 31/16 A3016 RMK A01 T03130155  RH  039%=      5-min Rain = 0
KAI1 111728Z 16014KT 31/15 A3016 RMK A01 T03140154  RH  038%=      5-min Rain = 0
KAI1 111729Z 15011KT 31/16 A3016 RMK A01 T03140156  RH  038%=      5-min Rain = 0
KAI1 111730Z 17011KT 31/16 A3016 RMK A01 T03140159  RH  039%=      5-min Rain = 0
KAI1 111731Z 17013KT 32/16 A3016 RMK A01 T03170158  RH  038%=      5-min Rain = 0
KAI1 111732Z 17015KT 32/15 A3016 RMK A01 T03170153  RH  037%=      5-min Rain = 0
KAI1 111733Z 18013KT 31/15 A3016 RMK A01 T03130147  RH  037%=      5-min Rain = 0
KAI1 111734Z 18013KT 31/15 A3016 RMK A01 T03130145  RH  036%=      5-min Rain = 0
KAI1 111735Z 16010KT 32/15 A3016 RMK A01 T03150146  RH  036%=      5-min Rain = 0
KAI1 111736Z 16008KT 32/15 A3016 RMK A01 T03150146  RH  036%=      5-min Rain = 0
KAI1 111737Z 16008G14KT 32/15 A3016 RMK A01 T03160151  RH  037%=      5-min Rain = 0
KAI1 111738Z 15014KT 32/15 A3016 RMK A01 T03170152  RH  037%=      5-min Rain = 0
KAI1 111739Z 16015KT 32/15 A3016 RMK A01 T03150152  RH  037%=      5-min Rain = 0
KAI1 111740Z 16016KT 31/15 A3016 RMK A01 T03130153  RH  038%=      5-min Rain = 0
KAI1 111741Z 16013G19KT 31/15 A3016 RMK A01 T03120150  RH  037%=      5-min Rain = 0
KAI1 111742Z 16009KT 31/15 A3016 RMK A01 T03110151  RH  038%=      5-min Rain = 0
KAI1 111743Z 16014KT 31/15 A3015 RMK A01 T03120153  RH  038%=      5-min Rain = 0
KAI1 111744Z 17013KT 31/15 A3015 RMK A01 T03120149  RH  037%=      5-min Rain = 0
KAI1 111745Z 17014KT 31/15 A3015 RMK A01 T03110149  RH  037%=      5-min Rain = 0
KAI1 111746Z 16012KT 31/15 A3015 RMK A01 T03100153  RH  039%=      5-min Rain = 0
KAI1 111747Z 16012KT 31/15 A3015 RMK A01 T03110153  RH  039%=      5-min Rain = 0
KAI1 111748Z 17012KT 31/15 A3015 RMK A01 T03110153  RH  038%=      5-min Rain = 0
KAI1 111749Z 16015G22KT 31/15 A3015 RMK A01 T03140153  RH  038%=      5-min Rain = 0
KAI1 111750Z 17018KT 32/15 A3015 RMK A01 T03150149  RH  037%=      5-min Rain = 0
KAI1 111751Z 18016G21KT 31/15 A3015 RMK A01 T03140147  RH  036%=      5-min Rain = 0
KAI1 111752Z 17013KT 31/15 A3015 RMK A01 T03120148  RH  037%=      5-min Rain = 0
KAI1 111753Z 16017KT 31/15 A3015 RMK A01 T03120151  RH  038%=      5-min Rain = 0
KAI1 111754Z 17016KT 31/15 A3015 RMK A01 T03130149  RH  037%=      5-min Rain = 0
KAI1 111755Z 18015KT 31/15 A3015 RMK A01 T03130151  RH  038%=      5-min Rain = 0
KAI1 111756Z 18017KT 32/15 A3015 RMK A01 T03160152  RH  037%=      5-min Rain = 0
KAI1 111757Z 20014KT 32/15 A3015 RMK A01 T03180147  RH  036%=      5-min Rain = 0
KAI1 111758Z 20017KT 32/14 A3015 RMK A01 T03190143  RH  034%=      5-min Rain = 0
KAI1 111759Z 18015KT 32/14 A3015 RMK A01 T03170143  RH  035%=      5-min Rain = 0
KAI1 111800Z 18010KT 32/14 A3015 RMK A01 T03160142  RH  035%=      5-min Rain = 0
KAI1 111801Z 19012KT 32/14 A3015 RMK A01 T03180144  RH  035%=      5-min Rain = 0
KAI1 111802Z 18013KT 32/15 A3015 RMK A01 T03210147  RH  035%=      5-min Rain = 0
KAI1 111803Z 17017KT 32/15 A3015 RMK A01 T03210150  RH  036%=      5-min Rain = 0
KAI1 111804Z 17014G19KT 32/15 A3015 RMK A01 T03170150  RH  036%=      5-min Rain = 0
KAI1 111805Z 17018KT 32/15 A3015 RMK A01 T03150151  RH  037%=      5-min Rain = 0
KAI1 111806Z 17014KT 31/15 A3015 RMK A01 T03140153  RH  038%=      5-min Rain = 0
KAI1 111807Z 16017KT 32/15 A3015 RMK A01 T03160151  RH  037%=      5-min Rain = 0
KAI1 111808Z 16015KT 32/15 A3015 RMK A01 T03160152  RH  037%=      5-min Rain = 0
KAI1 111809Z 15014KT 32/16 A3015 RMK A01 T03160156  RH  038%=      5-min Rain = 0
KAI1 111810Z 16013KT 32/16 A3015 RMK A01 T03180159  RH  038%=      5-min Rain = 0
KAI1 111811Z 16012KT 32/16 A3015 RMK A01 T03200157  RH  037%=      5-min Rain = 0
KAI1 111812Z 17013KT 32/16 A3015 RMK A01 T03200157  RH  037%=      5-min Rain = 0
KAI1 111813Z 17011KT 32/16 A3015 RMK A01 T03200155  RH  037%=      5-min Rain = 0
KAI1 111814Z 18010KT 32/15 A3015 RMK A01 T03190154  RH  037%=      5-min Rain = 0
KAI1 111815Z 17011KT 32/15 A3015 RMK A01 T03190154  RH  037%=      5-min Rain = 0
KAI1 111816Z 17016KT 32/15 A3015 RMK A01 T03200154  RH  037%=      5-min Rain = 0
KAI1 111817Z 17017KT 32/15 A3015 RMK A01 T03200153  RH  036%=      5-min Rain = 0
KAI1 111818Z 16014KT 32/15 A3015 RMK A01 T03180153  RH  037%=      5-min Rain = 0
KAI1 111819Z 16012KT 32/15 A3015 RMK A01 T03180154  RH  037%=      5-min Rain = 0
KAI1 111820Z 17012KT 32/16 A3015 RMK A01 T03190155  RH  037%=      5-min Rain = 0
KAI1 111821Z 16012KT 32/15 A3015 RMK A01 T03210154  RH  036%=      5-min Rain = 0
KAI1 111822Z 16015KT 32/15 A3015 RMK A01 T03200154  RH  037%=      5-min Rain = 0
KAI1 111823Z 17015G20KT 32/15 A3015 RMK A01 T03180151  RH  036%=      5-min Rain = 0
KAI1 111824Z 17013KT 32/15 A3015 RMK A01 T03160149  RH  036%=      5-min Rain = 0
KAI1 111825Z 18015KT 32/15 A3015 RMK A01 T03190153  RH  037%=      5-min Rain = 0
KAI1 111826Z 19015KT 32/15 A3015 RMK A01 T03220150  RH  035%=      5-min Rain = 0
KAI1 111827Z 18017KT 33/14 A3015 RMK A01 T03260139  RH  032%=      5-min Rain = 0
KAI1 111828Z 18015KT 32/14 A3015 RMK A01 T03240141  RH  033%=      5-min Rain = 0
KAI1 111829Z 18012KT 32/14 A3015 RMK A01 T03200144  RH  034%=      5-min Rain = 0
KAI1 111830Z 18012KT 32/15 A3015 RMK A01 T03190146  RH  035%=      5-min Rain = 0
KAI1 111831Z 20012KT 32/15 A3014 RMK A01 T03190148  RH  036%=      5-min Rain = 0
KAI1 111832Z 16013KT 32/15 A3014 RMK A01 T03230153  RH  036%=      5-min Rain = 0
KAI1 111833Z 16013KT 33/15 A3014 RMK A01 T03250152  RH  035%=      5-min Rain = 0
KAI1 111834Z 18010KT 32/16 A3014 RMK A01 T03240155  RH  036%=      5-min Rain = 0
KAI1 111835Z 19013KT 33/15 A3014 RMK A01 T03250146  RH  034%=      5-min Rain = 0
KAI1 111836Z 17014KT 33/15 A3014 RMK A01 T03270147  RH  034%=      5-min Rain = 0
KAI1 111837Z 18019KT 33/15 A3014 RMK A01 T03280152  RH  035%=      5-min Rain = 0
KAI1 111838Z 18017G22KT 32/14 A3014 RMK A01 T03240144  RH  034%=      5-min Rain = 0
KAI1 111839Z 17015KT 32/15 A3014 RMK A01 T03220147  RH  035%=      5-min Rain = 0
KAI1 111840Z 17013KT 32/15 A3014 RMK A01 T03220147  RH  035%=      5-min Rain = 0
KAI1 111841Z 17013KT 32/15 A3014 RMK A01 T03200147  RH  035%=      5-min Rain = 0
KAI1 111842Z 18013KT 32/15 A3014 RMK A01 T03190147  RH  035%=      5-min Rain = 0
KAI1 111843Z 16009G14KT 32/15 A3014 RMK A01 T03180152  RH  037%=      5-min Rain = 0
KAI1 111844Z 17013G19KT 32/16 A3014 RMK A01 T03220157  RH  037%=      5-min Rain = 0
KAI1 111845Z 17013KT 32/15 A3014 RMK A01 T03240149  RH  035%=      5-min Rain = 0
KAI1 111846Z 17010KT 32/15 A3014 RMK A01 T03200151  RH  036%=      5-min Rain = 0
KAI1 111847Z 17011KT 32/15 A3014 RMK A01 T03210152  RH  036%=      5-min Rain = 0
KAI1 111848Z 16015G20KT 32/15 A3014 RMK A01 T03230152  RH  036%=      5-min Rain = 0
KAI1 111849Z 16018KT 32/15 A3013 RMK A01 T03210151  RH  036%=      5-min Rain = 0
KAI1 111850Z 16013KT 32/15 A3014 RMK A01 T03160149  RH  037%=      5-min Rain = 0
KAI1 111851Z 16013G18KT 31/15 A3013 RMK A01 T03120149  RH  037%=      5-min Rain = 0
KAI1 111852Z 16013G18KT 31/15 A3013 RMK A01 T03100150  RH  038%=      5-min Rain = 0
KAI1 111853Z 17015G20KT 31/15 A3013 RMK A01 T03110150  RH  038%=      5-min Rain = 0
KAI1 111854Z 17015KT 32/15 A3013 RMK A01 T03150146  RH  036%=      5-min Rain = 0
KAI1 111855Z 18014G19KT 32/15 A3013 RMK A01 T03190148  RH  036%=      5-min Rain = 0
KAI1 111856Z 18016KT 32/15 A3013 RMK A01 T03230148  RH  035%=      5-min Rain = 0
KAI1 111857Z 18014KT 32/15 A3013 RMK A01 T03230147  RH  035%=      5-min Rain = 0
KAI1 111858Z 18013KT 32/15 A3013 RMK A01 T03220146  RH  035%=      5-min Rain = 0
KAI1 111859Z 17014KT 32/15 A3013 RMK A01 T03240153  RH  036%=      5-min Rain = 0
KAI1 111900Z 18014KT 33/16 A3013 RMK A01 T03270157  RH  036%=      5-min Rain = 0
KAI1 111901Z 18013KT 33/15 A3013 RMK A01 T03300150  RH  034%=      5-min Rain = 0
KAI1 111902Z 19013KT 33/15 A3013 RMK A01 T03280148  RH  034%=      5-min Rain = 0
KAI1 111903Z 18010KT 33/15 A3013 RMK A01 T03260148  RH  034%=      5-min Rain = 0
KAI1 111904Z 17014KT 33/15 A3013 RMK A01 T03260153  RH  035%=      5-min Rain = 0
KAI1 111905Z 16010KT 33/16 A3013 RMK A01 T03260155  RH  036%=      5-min Rain = 0
KAI1 111906Z 17014KT 33/16 A3013 RMK A01 T03270157  RH  036%=      5-min Rain = 0
KAI1 111907Z 17013KT 32/15 A3013 RMK A01 T03240152  RH  035%=      5-min Rain = 0
KAI1 111908Z 17013KT 32/15 A3013 RMK A01 T03180151  RH  036%=      5-min Rain = 0
KAI1 111909Z 17013KT 31/15 A3012 RMK A01 T03130149  RH  037%=      5-min Rain = 0
KAI1 111910Z 16012KT 31/15 A3012 RMK A01 T03090150  RH  038%=      5-min Rain = 0
KAI1 111911Z 16014G21KT 31/15 A3012 RMK A01 T03080152  RH  039%=      5-min Rain = 0
KAI1 111912Z 16018KT 31/15 A3012 RMK A01 T03120152  RH  038%=      5-min Rain = 0
KAI1 111913Z 17015KT 32/15 A3012 RMK A01 T03160152  RH  037%=      5-min Rain = 0
KAI1 111914Z 18015KT 32/15 A3012 RMK A01 T03190150  RH  036%=      5-min Rain = 0
KAI1 111915Z 17012KT 32/15 A3012 RMK A01 T03230152  RH  036%=      5-min Rain = 0
KAI1 111916Z 17011KT 33/15 A3012 RMK A01 T03260154  RH  036%=      5-min Rain = 0
KAI1 111917Z 16013G18KT 33/15 A3012 RMK A01 T03260153  RH  035%=      5-min Rain = 0
KAI1 111918Z 17017G23KT 33/15 A3012 RMK A01 T03260154  RH  036%=      5-min Rain = 0
KAI1 111919Z 17017KT 33/15 A3012 RMK A01 T03260153  RH  035%=      5-min Rain = 0
KAI1 111920Z 17017KT 33/15 A3012 RMK A01 T03260151  RH  035%=      5-min Rain = 0
KAI1 111921Z 17016KT 33/15 A3012 RMK A01 T03250148  RH  034%=      5-min Rain = 0
KAI1 111922Z 18016KT 32/15 A3012 RMK A01 T03190148  RH  036%=      5-min Rain = 0
KAI1 111923Z 16015KT 32/15 A3012 RMK A01 T03160146  RH  036%=      5-min Rain = 0
KAI1 111924Z 16012KT 31/15 A3012 RMK A01 T03140148  RH  037%=      5-min Rain = 0
KAI1 111925Z 18015KT 31/15 A3012 RMK A01 T03130149  RH  037%=      5-min Rain = 0
KAI1 111926Z 18018KT 31/15 A3012 RMK A01 T03130146  RH  036%=      5-min Rain = 0
KAI1 111927Z 17016KT 31/15 A3012 RMK A01 T03120145  RH  036%=      5-min Rain = 0
KAI1 111928Z 17016KT 31/15 A3011 RMK A01 T03120148  RH  037%=      5-min Rain = 0
KAI1 111929Z 17017G23KT 32/15 A3011 RMK A01 T03170152  RH  037%=      5-min Rain = 0
KAI1 111930Z 17015KT 32/15 A3011 RMK A01 T03210151  RH  036%=      5-min Rain = 0
KAI1 111931Z 16012KT 32/15 A3011 RMK A01 T03210147  RH  035%=      5-min Rain = 0
KAI1 111932Z 16011KT 32/15 A3011 RMK A01 T03190149  RH  036%=      5-min Rain = 0
KAI1 111933Z 16010KT 32/15 A3011 RMK A01 T03190150  RH  036%=      5-min Rain = 0
KAI1 111934Z 17011KT 32/15 A3011 RMK A01 T03190152  RH  036%=      5-min Rain = 0
KAI1 111935Z 17014G19KT 32/16 A3011 RMK A01 T03190155  RH  037%=      5-min Rain = 0
KAI1 111936Z 18014KT 32/16 A3011 RMK A01 T03230156  RH  037%=      5-min Rain = 0
KAI1 111937Z 17011KT 33/16 A3011 RMK A01 T03250156  RH  036%=      5-min Rain = 0
KAI1 111938Z 18014KT 33/16 A3011 RMK A01 T03280155  RH  035%=      5-min Rain = 0
KAI1 111939Z 17015KT 33/16 A3011 RMK A01 T03310155  RH  035%=      5-min Rain = 0
KAI1 111940Z 15013G18KT 33/16 A3011 RMK A01 T03310157  RH  035%=      5-min Rain = 0
KAI1 111941Z 15009KT 33/16 A3011 RMK A01 T03310161  RH  036%=      5-min Rain = 0
KAI1 111942Z 16013KT 33/16 A3011 RMK A01 T03310160  RH  036%=      5-min Rain = 0
KAI1 111943Z 17011KT 33/16 A3011 RMK A01 T03290159  RH  036%=      5-min Rain = 0
KAI1 111944Z 17014G20KT 33/16 A3011 RMK A01 T03280155  RH  035%=      5-min Rain = 0
KAI1 111945Z 16018KT 32/15 A3011 RMK A01 T03240152  RH  036%=      5-min Rain = 0
KAI1 111946Z 17013KT 32/15 A3011 RMK A01 T03190150  RH  036%=      5-min Rain = 0
KAI1 111947Z 17014KT 32/15 A3011 RMK A01 T03170148  RH  036%=      5-min Rain = 0
KAI1 111948Z 17015KT 32/15 A3011 RMK A01 T03160151  RH  037%=      5-min Rain = 0
KAI1 111949Z 17015KT 31/15 A3011 RMK A01 T03140145  RH  036%=      5-min Rain = 0
KAI1 111950Z 16014KT 32/14 A3011 RMK A01 T03150144  RH  035%=      5-min Rain = 0
KAI1 111951Z 16014KT 32/15 A3011 RMK A01 T03170146  RH  035%=      5-min Rain = 0
KAI1 111952Z 18014G19KT 32/15 A3011 RMK A01 T03210150  RH  035%=      5-min Rain = 0
KAI1 111953Z 17015KT 33/15 A3011 RMK A01 T03260152  RH  035%=      5-min Rain = 0
KAI1 111954Z 16014KT 33/15 A3011 RMK A01 T03280149  RH  034%=      5-min Rain = 0
KAI1 111955Z 16014KT 33/15 A3011 RMK A01 T03300149  RH  034%=      5-min Rain = 0
KAI1 111956Z 17012KT 33/15 A3011 RMK A01 T03290146  RH  033%=      5-min Rain = 0
KAI1 111957Z 16012KT 33/15 A3011 RMK A01 T03290154  RH  035%=      5-min Rain = 0
KAI1 111958Z 17011KT 33/15 A3011 RMK A01 T03300154  RH  035%=      5-min Rain = 0
KAI1 111959Z 17012KT 33/16 A301 RMK A01 T03290155  RH  035%=      5-min Rain = 0
KAI1 112000Z 17016KT 33/16 A301 RMK A01 T03300159  RH  036%=      5-min Rain = 0
KAI1 112001Z 17016KT 33/15 A301 RMK A01 T03320150  RH  033%=      5-min Rain = 0
KAI1 112002Z 17016KT 33/15 A301 RMK A01 T03290148  RH  034%=      5-min Rain = 0
KAI1 112003Z 17015KT 33/15 A301 RMK A01 T03250149  RH  035%=      5-min Rain = 0
KAI1 112004Z 18014KT 32/15 A301 RMK A01 T03220150  RH  035%=      5-min Rain = 0
KAI1 112005Z 19015KT 32/14 A301 RMK A01 T03210143  RH  034%=      5-min Rain = 0
KAI1 112006Z 18014G20KT 32/14 A301 RMK A01 T03230142  RH  033%=      5-min Rain = 0
KAI1 112007Z 17014KT 33/15 A301 RMK A01 T03290152  RH  034%=      5-min Rain = 0
KAI1 112008Z 17016KT 33/15 A301 RMK A01 T03300150  RH  034%=      5-min Rain = 0
KAI1 112009Z 17013KT 33/15 A301 RMK A01 T03290150  RH  034%=      5-min Rain = 0
KAI1 112010Z 17012KT 33/15 A301 RMK A01 T03310151  RH  034%=      5-min Rain = 0
KAI1 112011Z 18013KT 33/15 A301 RMK A01 T03330148  RH  033%=      5-min Rain = 0
KAI1 112012Z 18014KT 33/15 A301 RMK A01 T03330151  RH  034%=      5-min Rain = 0
KAI1 112013Z 18018KT 33/15 A301 RMK A01 T03320151  RH  034%=      5-min Rain = 0
KAI1 112014Z 19016KT 34/15 A301 RMK A01 T03350146  RH  032%=      5-min Rain = 0
KAI1 112015Z 18012KT 34/15 A301 RMK A01 T03360146  RH  032%=      5-min Rain = 0
KAI1 112016Z 18011KT 34/15 A301 RMK A01 T03380151  RH  033%=      5-min Rain = 0
KAI1 112017Z 17010KT 34/15 A301 RMK A01 T03400151  RH  032%=      5-min Rain = 0
KAI1 112018Z 18011KT 34/15 A301 RMK A01 T03380148  RH  032%=      5-min Rain = 0
KAI1 112019Z 18012KT 34/15 A301 RMK A01 T03350149  RH  033%=      5-min Rain = 0
KAI1 112020Z 17015KT 33/15 A301 RMK A01 T03340151  RH  033%=      5-min Rain = 0
KAI1 112021Z 16014G21KT 34/15 A301 RMK A01 T03370150  RH  033%=      5-min Rain = 0
KAI1 112022Z 17011KT 34/15 A301 RMK A01 T03350153  RH  034%=      5-min Rain = 0
KAI1 112023Z 18016KT 34/15 A301 RMK A01 T03360154  RH  034%=      5-min Rain = 0
KAI1 112024Z 17016KT 34/15 A301 RMK A01 T03370149  RH  032%=      5-min Rain = 0
KAI1 112025Z 17014KT 33/15 A301 RMK A01 T03310151  RH  034%=      5-min Rain = 0
KAI1 112026Z 17013KT 33/15 A301 RMK A01 T03260149  RH  034%=      5-min Rain = 0
KAI1 112027Z 17010KT 32/15 A301 RMK A01 T03230149  RH  035%=      5-min Rain = 0
KAI1 112028Z 17011KT 33/15 A301 RMK A01 T03250149  RH  035%=      5-min Rain = 0
KAI1 112029Z 17013KT 33/15 A301 RMK A01 T03280152  RH  035%=      5-min Rain = 0
KAI1 112030Z 17013KT 33/15 A301 RMK A01 T03260151  RH  035%=      5-min Rain = 0
KAI1 112031Z 18012KT 32/15 A301 RMK A01 T03230151  RH  035%=      5-min Rain = 0
KAI1 112032Z 17013G18KT 32/15 A301 RMK A01 T03220151  RH  036%=      5-min Rain = 0
KAI1 112033Z 18016G21KT 33/16 A301 RMK A01 T03260155  RH  036%=      5-min Rain = 0
KAI1 112034Z 18017KT 33/15 A3009 RMK A01 T03300150  RH  034%=      5-min Rain = 0
KAI1 112035Z 18015KT 33/15 A301 RMK A01 T03320148  RH  033%=      5-min Rain = 0
KAI1 112036Z 17012KT 33/15 A3009 RMK A01 T03320149  RH  033%=      5-min Rain = 0
KAI1 112037Z 17012KT 33/15 A3009 RMK A01 T03320152  RH  034%=      5-min Rain = 0
KAI1 112038Z 17012KT 33/15 A3009 RMK A01 T03300152  RH  034%=      5-min Rain = 0
KAI1 112039Z 16010KT 33/16 A3009 RMK A01 T03260156  RH  036%=      5-min Rain = 0
KAI1 112040Z 17013KT 33/16 A3009 RMK A01 T03250155  RH  036%=      5-min Rain = 0
KAI1 112041Z 17013KT 32/16 A3009 RMK A01 T03220156  RH  037%=      5-min Rain = 0
KAI1 112042Z 17015KT 32/15 A3009 RMK A01 T03180154  RH  037%=      5-min Rain = 0
KAI1 112043Z 17014G19KT 32/15 A3009 RMK A01 T03170152  RH  037%=      5-min Rain = 0
KAI1 112044Z 16015KT 32/15 A3009 RMK A01 T03180149  RH  036%=      5-min Rain = 0
KAI1 112045Z 17013KT 32/15 A3009 RMK A01 T03220148  RH  035%=      5-min Rain = 0
KAI1 112046Z 16012KT 33/15 A3009 RMK A01 T03260151  RH  035%=      5-min Rain = 0
KAI1 112047Z 17015KT 33/15 A3009 RMK A01 T03290153  RH  035%=      5-min Rain = 0
KAI1 112048Z 16012G18KT 33/16 A3008 RMK A01 T03320155  RH  035%=      5-min Rain = 0
KAI1 112049Z 17017KT 33/15 A3008 RMK A01 T03330154  RH  034%=      5-min Rain = 0
KAI1 112050Z 17017G22KT 33/15 A3008 RMK A01 T03320153  RH  034%=      5-min Rain = 0
KAI1 112051Z 17018KT 33/16 A3008 RMK A01 T03300155  RH  035%=      5-min Rain = 0
KAI1 112052Z 17016KT 33/15 A3008 RMK A01 T03300153  RH  035%=      5-min Rain = 0
KAI1 112053Z 17016KT 33/15 A3008 RMK A01 T03290154  RH  035%=      5-min Rain = 0
KAI1 112054Z 17016KT 33/15 A3008 RMK A01 T03290153  RH  035%=      5-min Rain = 0
KAI1 112055Z 17016G21KT 33/15 A3008 RMK A01 T03300152  RH  034%=      5-min Rain = 0
KAI1 112056Z 17016KT 33/15 A3008 RMK A01 T03310152  RH  034%=      5-min Rain = 0
KAI1 112057Z 17013KT 33/15 A3008 RMK A01 T03330152  RH  034%=      5-min Rain = 0
KAI1 112058Z 17014KT 34/16 A3008 RMK A01 T03360156  RH  034%=      5-min Rain = 0
KAI1 112059Z 18012KT 34/15 A3008 RMK A01 T03380149  RH  032%=      5-min Rain = 0
KAI1 112100Z 18012G17KT 34/15 A3008 RMK A01 T03410151  RH  032%=      5-min Rain = 0
KAI1 112101Z 17014KT 34/15 A3008 RMK A01 T03440152  RH  032%=      5-min Rain = 0
KAI1 112102Z 15014KT 34/15 A3008 RMK A01 T03430153  RH  032%=      5-min Rain = 0
KAI1 112103Z 17012KT 34/15 A3008 RMK A01 T03400152  RH  033%=      5-min Rain = 0
KAI1 112104Z 17015G20KT 34/16 A3008 RMK A01 T03380155  RH  033%=      5-min Rain = 0
KAI1 112105Z 16015KT 34/16 A3008 RMK A01 T03370155  RH  034%=      5-min Rain = 0
KAI1 112106Z 16012KT 34/15 A3008 RMK A01 T03350154  RH  034%=      5-min Rain = 0
KAI1 112107Z 16013G18KT 33/16 A3008 RMK A01 T03340160  RH  035%=      5-min Rain = 0
KAI1 112108Z 16015KT 34/15 A3008 RMK A01 T03350152  RH  033%=      5-min Rain = 0
KAI1 112109Z 16016KT 34/15 A3008 RMK A01 T03360152  RH  033%=      5-min Rain = 0
KAI1 112110Z 17013KT 34/15 A3008 RMK A01 T03370152  RH  033%=      5-min Rain = 0
KAI1 112111Z 16012KT 34/15 A3008 RMK A01 T03370149  RH  032%=      5-min Rain = 0
KAI1 112112Z 16012KT 34/15 A3008 RMK A01 T03370151  RH  033%=      5-min Rain = 0
KAI1 112113Z 16013KT 34/15 A3007 RMK A01 T03380152  RH  033%=      5-min Rain = 0
KAI1 112114Z 15015KT 34/15 A3007 RMK A01 T03380152  RH  033%=      5-min Rain = 0
KAI1 112115Z 17014KT 34/15 A3007 RMK A01 T03380149  RH  032%=      5-min Rain = 0
KAI1 112116Z 16016KT 33/15 A3007 RMK A01 T03330149  RH  033%=      5-min Rain = 0
KAI1 112117Z 17015KT 33/15 A3007 RMK A01 T03320152  RH  034%=      5-min Rain = 0
KAI1 112118Z 18016KT 34/15 A3007 RMK A01 T03360148  RH  032%=      5-min Rain = 0
KAI1 112119Z 18016KT 34/14 A3007 RMK A01 T03400143  RH  031%=      5-min Rain = 0
KAI1 112120Z 18014KT 34/15 A3007 RMK A01 T03420146  RH  031%=      5-min Rain = 0
KAI1 112121Z 18015KT 35/14 A3007 RMK A01 T03450140  RH  029%=      5-min Rain = 0
KAI1 112122Z 18012KT 34/14 A3007 RMK A01 T03430143  RH  030%=      5-min Rain = 0
KAI1 112123Z 16012KT 34/15 A3007 RMK A01 T03440153  RH  032%=      5-min Rain = 0
KAI1 112124Z 17016KT 35/15 A3007 RMK A01 T03460149  RH  031%=      5-min Rain = 0
KAI1 112125Z 17011KT 34/14 A3007 RMK A01 T03380140  RH  030%=      5-min Rain = 0
KAI1 112126Z 17013KT 33/14 A3007 RMK A01 T03320142  RH  032%=      5-min Rain = 0
KAI1 112127Z 18015KT 33/14 A3007 RMK A01 T03280142  RH  033%=      5-min Rain = 0
KAI1 112128Z 18014KT 32/14 A3007 RMK A01 T03240140  RH  033%=      5-min Rain = 0
KAI1 112129Z 17011KT 33/15 A3007 RMK A01 T03250146  RH  034%=      5-min Rain = 0
KAI1 112130Z 18012KT 33/15 A3007 RMK A01 T03290147  RH  033%=      5-min Rain = 0
KAI1 112131Z 18011KT 33/14 A3007 RMK A01 T03290139  RH  032%=      5-min Rain = 0
KAI1 112132Z 17013KT 33/14 A3007 RMK A01 T03290143  RH  033%=      5-min Rain = 0
KAI1 112133Z 17011KT 33/14 A3007 RMK A01 T03320144  RH  032%=      5-min Rain = 0
KAI1 112134Z 17011G17KT 34/14 A3007 RMK A01 T03370143  RH  031%=      5-min Rain = 0
KAI1 112135Z 17013KT 34/15 A3007 RMK A01 T03420147  RH  031%=      5-min Rain = 0
KAI1 112136Z 18016KT 34/14 A3006 RMK A01 T03410142  RH  030%=      5-min Rain = 0
KAI1 112137Z 17015KT 34/14 A3006 RMK A01 T03370144  RH  031%=      5-min Rain = 0
KAI1 112138Z 17014KT 34/15 A3006 RMK A01 T03360146  RH  032%=      5-min Rain = 0
KAI1 112139Z 16014KT 34/15 A3006 RMK A01 T03360145  RH  032%=      5-min Rain = 0
KAI1 112140Z 17014KT 34/14 A3006 RMK A01 T03370143  RH  031%=      5-min Rain = 0
KAI1 112141Z 16014KT 34/14 A3006 RMK A01 T03390144  RH  031%=      5-min Rain = 0
KAI1 112142Z 17012KT 34/15 A3006 RMK A01 T03400145  RH  031%=      5-min Rain = 0
KAI1 112143Z 17013KT 34/14 A3006 RMK A01 T03400144  RH  031%=      5-min Rain = 0
KAI1 112144Z 17015KT 34/14 A3006 RMK A01 T03390143  RH  031%=      5-min Rain = 0
KAI1 112145Z 17017KT 33/14 A3006 RMK A01 T03340141  RH  031%=      5-min Rain = 0
KAI1 112146Z 16017KT 33/14 A3006 RMK A01 T03300143  RH  032%=      5-min Rain = 0
KAI1 112147Z 17016KT 33/14 A3006 RMK A01 T03300142  RH  032%=      5-min Rain = 0
KAI1 112148Z 18017KT 33/14 A3006 RMK A01 T03310140  RH  032%=      5-min Rain = 0
KAI1 112149Z 18013KT 33/14 A3006 RMK A01 T03310135  RH  031%=      5-min Rain = 0
KAI1 112150Z 18013KT 33/14 A3006 RMK A01 T03290135  RH  031%=      5-min Rain = 0
KAI1 112151Z 18013KT 33/14 A3006 RMK A01 T03260135  RH  031%=      5-min Rain = 0
KAI1 112152Z 18014KT 33/14 A3006 RMK A01 T03260136  RH  032%=      5-min Rain = 0
KAI1 112153Z 19016KT 33/13 A3006 RMK A01 T03260131  RH  031%=      5-min Rain = 0
KAI1 112154Z 18016KT 33/13 A3006 RMK A01 T03300132  RH  030%=      5-min Rain = 0
KAI1 112155Z 18014KT 33/13 A3006 RMK A01 T03330134  RH  030%=      5-min Rain = 0
KAI1 112156Z 17015KT 33/14 A3006 RMK A01 T03340137  RH  030%=      5-min Rain = 0
KAI1 112157Z 17015KT 34/14 A3005 RMK A01 T03350140  RH  031%=      5-min Rain = 0
KAI1 112158Z 17017KT 33/14 A3006 RMK A01 T03340142  RH  031%=      5-min Rain = 0
KAI1 112159Z 16017KT 33/14 A3006 RMK A01 T03310141  RH  032%=      5-min Rain = 0
KAI1 112200Z 16016KT 33/14 A3006 RMK A01 T03300138  RH  031%=      5-min Rain = 0
KAI1 112201Z 17013KT 33/14 A3006 RMK A01 T03290139  RH  032%=      5-min Rain = 0
KAI1 112202Z 17014KT 33/14 A3005 RMK A01 T03260138  RH  032%=      5-min Rain = 0
KAI1 112203Z 17012KT 32/14 A3006 RMK A01 T03230142  RH  033%=      5-min Rain = 0
KAI1 112204Z 16013KT 32/14 A3006 RMK A01 T03220141  RH  033%=      5-min Rain = 0
KAI1 112205Z 15014G19KT 32/14 A3005 RMK A01 T03210138  RH  033%=      5-min Rain = 0
KAI1 112206Z 17017KT 32/14 A3005 RMK A01 T03210142  RH  034%=      5-min Rain = 0
KAI1 112207Z 17015G20KT 32/14 A3006 RMK A01 T03200141  RH  034%=      5-min Rain = 0
KAI1 112208Z 17016KT 32/14 A3006 RMK A01 T03190137  RH  033%=      5-min Rain = 0
KAI1 112209Z 17015KT 32/14 A3006 RMK A01 T03170138  RH  034%=      5-min Rain = 0
KAI1 112210Z 17013KT 32/14 A3006 RMK A01 T03150139  RH  034%=      5-min Rain = 0
KAI1 112211Z 17013KT 32/14 A3006 RMK A01 T03150139  RH  034%=      5-min Rain = 0
KAI1 112212Z 17010KT 31/14 A3006 RMK A01 T03140141  RH  035%=      5-min Rain = 0
KAI1 112213Z 17011KT 31/14 A3006 RMK A01 T03140144  RH  036%=      5-min Rain = 0
KAI1 112214Z 17013KT 31/14 A3006 RMK A01 T03140141  RH  035%=      5-min Rain = 0
KAI1 112215Z 16010KT 32/14 A3006 RMK A01 T03150140  RH  034%=      5-min Rain = 0
KAI1 112216Z 17010KT 32/14 A3006 RMK A01 T03180141  RH  034%=      5-min Rain = 0
KAI1 112217Z 17010KT 32/14 A3006 RMK A01 T03210139  RH  033%=      5-min Rain = 0
KAI1 112218Z 17011KT 32/14 A3006 RMK A01 T03240139  RH  033%=      5-min Rain = 0
KAI1 112219Z 17010KT 33/14 A3006 RMK A01 T03250139  RH  032%=      5-min Rain = 0
KAI1 112220Z 18011KT 32/14 A3006 RMK A01 T03240143  RH  033%=      5-min Rain = 0
KAI1 112221Z 17016KT 32/14 A3006 RMK A01 T03230140  RH  033%=      5-min Rain = 0
KAI1 112222Z 18015KT 32/14 A3006 RMK A01 T03200136  RH  033%=      5-min Rain = 0
KAI1 112223Z 18015KT 32/13 A3006 RMK A01 T03190133  RH  032%=      5-min Rain = 0
KAI1 112224Z 18013KT 32/13 A3006 RMK A01 T03200132  RH  032%=      5-min Rain = 0
KAI1 112225Z 17013KT 32/13 A3006 RMK A01 T03220134  RH  032%=      5-min Rain = 0
KAI1 112226Z 16012KT 33/14 A3005 RMK A01 T03250141  RH  033%=      5-min Rain = 0
KAI1 112227Z 16012KT 33/14 A3005 RMK A01 T03250143  RH  033%=      5-min Rain = 0
KAI1 112228Z 17011KT 32/14 A3005 RMK A01 T03240143  RH  033%=      5-min Rain = 0
KAI1 112229Z 17010KT 32/14 A3005 RMK A01 T03220140  RH  033%=      5-min Rain = 0
KAI1 112230Z 17013KT 32/14 A3005 RMK A01 T03210141  RH  034%=      5-min Rain = 0
KAI1 112231Z 17012G18KT 32/14 A3005 RMK A01 T03190142  RH  034%=      5-min Rain = 0
KAI1 112232Z 18014KT 32/14 A3005 RMK A01 T03180138  RH  033%=      5-min Rain = 0
KAI1 112233Z 17017KT 32/14 A3005 RMK A01 T03190135  RH  033%=      5-min Rain = 0
KAI1 112234Z 17016KT 32/13 A3005 RMK A01 T03220133  RH  032%=      5-min Rain = 0
KAI1 112235Z 18015KT 33/13 A3005 RMK A01 T03250131  RH  031%=      5-min Rain = 0
KAI1 112236Z 17012KT 33/14 A3005 RMK A01 T03280136  RH  031%=      5-min Rain = 0
KAI1 112237Z 16012KT 33/14 A3005 RMK A01 T03300139  RH  031%=      5-min Rain = 0
KAI1 112238Z 17012KT 33/14 A3005 RMK A01 T03320136  RH  031%=      5-min Rain = 0
KAI1 112239Z 17011KT 33/14 A3005 RMK A01 T03330137  RH  031%=      5-min Rain = 0
KAI1 112240Z 16011G17KT 33/14 A3005 RMK A01 T03330142  RH  032%=      5-min Rain = 0
KAI1 112241Z 17014KT 33/14 A3005 RMK A01 T03330138  RH  031%=      5-min Rain = 0
KAI1 112242Z 16015KT 33/14 A3005 RMK A01 T03330138  RH  031%=      5-min Rain = 0
KAI1 112243Z 15018G24KT 33/14 A3005 RMK A01 T03330138  RH  031%=      5-min Rain = 0
KAI1 112244Z 16018KT 33/14 A3005 RMK A01 T03310135  RH  031%=      5-min Rain = 0
KAI1 112245Z 16016G21KT 33/13 A3005 RMK A01 T03270131  RH  030%=      5-min Rain = 0
KAI1 112246Z 15014KT 33/13 A3005 RMK A01 T03250132  RH  031%=      5-min Rain = 0
KAI1 112247Z 14012KT 33/13 A3005 RMK A01 T03250133  RH  031%=      5-min Rain = 0
KAI1 112248Z 15015KT 33/14 A3005 RMK A01 T03280136  RH  031%=      5-min Rain = 0
KAI1 112249Z 17014KT 33/13 A3005 RMK A01 T03290133  RH  030%=      5-min Rain = 0
KAI1 112250Z 16012KT 33/14 A3005 RMK A01 T03280135  RH  031%=      5-min Rain = 0
KAI1 112251Z 16012KT 33/14 A3005 RMK A01 T03270138  RH  032%=      5-min Rain = 0
KAI1 112252Z 17012KT 32/14 A3005 RMK A01 T03240136  RH  032%=      5-min Rain = 0
KAI1 112253Z 16012KT 32/13 A3005 RMK A01 T03210134  RH  032%=      5-min Rain = 0
KAI1 112254Z 15015KT 32/13 A3005 RMK A01 T03210133  RH  032%=      5-min Rain = 0
KAI1 112255Z 15014G19KT 32/13 A3005 RMK A01 T03220132  RH  031%=      5-min Rain = 0
KAI1 112256Z 15017KT 32/13 A3005 RMK A01 T03240134  RH  031%=      5-min Rain = 0
KAI1 112257Z 14017KT 33/14 A3005 RMK A01 T03260136  RH  032%=      5-min Rain = 0
KAI1 112258Z 15017KT 33/13 A3005 RMK A01 T03280134  RH  031%=      5-min Rain = 0
KAI1 112259Z 15017KT 33/13 A3005 RMK A01 T03280134  RH  031%=      5-min Rain = 0
KAI1 112300Z 15015KT 33/14 A3005 RMK A01 T03280135  RH  031%=      5-min Rain = 0
KAI1 112301Z 14016KT 33/13 A3005 RMK A01 T03290134  RH  031%=      5-min Rain = 0
KAI1 112302Z 14014KT 33/14 A3005 RMK A01 T03290138  RH  031%=      5-min Rain = 0
KAI1 112303Z 14016KT 33/13 A3005 RMK A01 T03290133  RH  031%=      5-min Rain = 0
KAI1 112304Z 14015KT 33/14 A3005 RMK A01 T03280135  RH  031%=      5-min Rain = 0
KAI1 112305Z 14012KT 33/14 A3005 RMK A01 T03280138  RH  032%=      5-min Rain = 0
KAI1 112306Z 16014KT 33/14 A3005 RMK A01 T03280140  RH  032%=      5-min Rain = 0
KAI1 112307Z 15015KT 33/14 A3005 RMK A01 T03290139  RH  032%=      5-min Rain = 0
KAI1 112308Z 14012KT 33/14 A3005 RMK A01 T03310141  RH  032%=      5-min Rain = 0
KAI1 112309Z 14013KT 33/14 A3005 RMK A01 T03320143  RH  032%=      5-min Rain = 0
KAI1 112310Z 14013KT 33/15 A3005 RMK A01 T03330145  RH  032%=      5-min Rain = 0
KAI1 112311Z 15012G17KT 33/14 A3005 RMK A01 T03330144  RH  032%=      5-min Rain = 0
KAI1 112312Z 16012KT 33/14 A3005 RMK A01 T03330144  RH  032%=      5-min Rain = 0
KAI1 112313Z 16011KT 33/15 A3005 RMK A01 T03340146  RH  032%=      5-min Rain = 0
KAI1 112314Z 16012KT 34/14 A3005 RMK A01 T03350142  RH  031%=      5-min Rain = 0
KAI1 112315Z 16015KT 34/14 A3005 RMK A01 T03360139  RH  030%=      5-min Rain = 0
KAI1 112316Z 16015KT 34/13 A3005 RMK A01 T03350133  RH  030%=      5-min Rain = 0
KAI1 112317Z 15013KT 33/13 A3005 RMK A01 T03320131  RH  030%=      5-min Rain = 0
KAI1 112318Z 15011KT 33/13 A3005 RMK A01 T03300133  RH  030%=      5-min Rain = 0
KAI1 112319Z 16012KT 33/13 A3005 RMK A01 T03270133  RH  031%=      5-min Rain = 0
KAI1 112320Z 15014KT 32/13 A3005 RMK A01 T03240132  RH  031%=      5-min Rain = 0
KAI1 112321Z 16013G18KT 32/13 A3005 RMK A01 T03220132  RH  031%=      5-min Rain = 0
KAI1 112322Z 16014KT 32/13 A3005 RMK A01 T03200130  RH  031%=      5-min Rain = 0
KAI1 112323Z 15013KT 32/13 A3005 RMK A01 T03190133  RH  032%=      5-min Rain = 0
KAI1 112324Z 16015KT 32/13 A3005 RMK A01 T03180131  RH  032%=      5-min Rain = 0
KAI1 112325Z 16014KT 32/13 A3005 RMK A01 T03170129  RH  032%=      5-min Rain = 0
KAI1 112326Z 16014KT 32/13 A3005 RMK A01 T03170129  RH  032%=      5-min Rain = 0
KAI1 112327Z 17013KT 32/13 A3005 RMK A01 T03170129  RH  032%=      5-min Rain = 0
KAI1 112328Z 16013KT 32/13 A3005 RMK A01 T03160129  RH  032%=      5-min Rain = 0
KAI1 112329Z 16010KT 32/13 A3005 RMK A01 T03160130  RH  032%=      5-min Rain = 0
KAI1 112330Z 16011KT 32/13 A3005 RMK A01 T03160132  RH  032%=      5-min Rain = 0
KAI1 112331Z 16011KT 32/13 A3005 RMK A01 T03170130  RH  032%=      5-min Rain = 0
KAI1 112332Z 16010KT 32/13 A3005 RMK A01 T03170132  RH  032%=      5-min Rain = 0
KAI1 112333Z 16009KT 32/14 A3005 RMK A01 T03180135  RH  033%=      5-min Rain = 0
KAI1 112334Z 15010KT 32/14 A3005 RMK A01 T03180135  RH  033%=      5-min Rain = 0
KAI1 112335Z 16009KT 32/14 A3005 RMK A01 T03190136  RH  033%=      5-min Rain = 0
KAI1 112336Z 16011KT 32/14 A3005 RMK A01 T03200137  RH  033%=      5-min Rain = 0
KAI1 112337Z 17013KT 32/13 A3005 RMK A01 T03190133  RH  032%=      5-min Rain = 0
KAI1 112338Z 16012KT 32/13 A3005 RMK A01 T03200134  RH  032%=      5-min Rain = 0
KAI1 112339Z 16009KT 32/14 A3005 RMK A01 T03210140  RH  033%=      5-min Rain = 0
KAI1 112340Z 16011KT 32/14 A3004 RMK A01 T03230140  RH  033%=      5-min Rain = 0
KAI1 112341Z 16010KT 33/14 A3004 RMK A01 T03250140  RH  033%=      5-min Rain = 0
KAI1 112342Z 16009KT 33/14 A3004 RMK A01 T03260141  RH  033%=      5-min Rain = 0
KAI1 112343Z 16011KT 33/14 A3004 RMK A01 T03270141  RH  032%=      5-min Rain = 0
KAI1 112344Z 16015KT 33/14 A3004 RMK A01 T03280137  RH  031%=      5-min Rain = 0
KAI1 112345Z 16015KT 33/14 A3004 RMK A01 T03280137  RH  031%=      5-min Rain = 0
KAI1 112346Z 17011KT 33/14 A3004 RMK A01 T03270139  RH  032%=      5-min Rain = 0
KAI1 112347Z 17011KT 33/14 A3004 RMK A01 T03260140  RH  032%=      5-min Rain = 0
KAI1 112348Z 17011KT 33/14 A3004 RMK A01 T03250141  RH  033%=      5-min Rain = 0
KAI1 112349Z 16009KT 33/14 A3004 RMK A01 T03250140  RH  033%=      5-min Rain = 0
KAI1 112350Z 16010KT 33/14 A3004 RMK A01 T03250141  RH  033%=      5-min Rain = 0
KAI1 112351Z 17010KT 33/14 A3004 RMK A01 T03260140  RH  033%=      5-min Rain = 0
KAI1 112352Z 16012KT 33/14 A3004 RMK A01 T03260140  RH  032%=      5-min Rain = 0
KAI1 112353Z 15013KT 33/14 A3004 RMK A01 T03260138  RH  032%=      5-min Rain = 0
KAI1 112354Z 16015KT 33/14 A3004 RMK A01 T03260136  RH  032%=      5-min Rain = 0
KAI1 112355Z 15012KT 33/14 A3004 RMK A01 T03260135  RH  031%=      5-min Rain = 0
KAI1 112356Z 16013KT 33/14 A3004 RMK A01 T03260138  RH  032%=      5-min Rain = 0
KAI1 112357Z 16014KT 33/14 A3004 RMK A01 T03260138  RH  032%=      5-min Rain = 0
KAI1 112358Z 16013KT 33/14 A3004 RMK A01 T03260137  RH  032%=      5-min Rain = 0
KAI1 112359Z 15011KT 33/14 A3004 RMK A01 T03260137  RH  032%=      5-min Rain = 0
KAI1 120000Z 16014KT 33/14 A3004 RMK A01 T03260140  RH  032%=      5-min Rain = 0
KAI1 120001Z 16011KT 33/14 A3004 RMK A01 T03260139  RH  032%=      5-min Rain = 0
KAI1 120002Z 16012KT 33/14 A3004 RMK A01 T03260138  RH  032%=      5-min Rain = 0
KAI1 120003Z 17013KT 33/14 A3004 RMK A01 T03250137  RH  032%=      5-min Rain = 0
KAI1 120004Z 17015KT 32/13 A3004 RMK A01 T03240134  RH  032%=      5-min Rain = 0
KAI1 120005Z 16015KT 32/14 A3004 RMK A01 T03230135  RH  032%=      5-min Rain = 0
KAI1 120006Z 15014KT 32/14 A3004 RMK A01 T03230136  RH  032%=      5-min Rain = 0
KAI1 120007Z 15014KT 32/14 A3004 RMK A01 T03230136  RH  032%=      5-min Rain = 0
KAI1 120008Z 15013KT 32/14 A3004 RMK A01 T03230135  RH  032%=      5-min Rain = 0
KAI1 120009Z 15013KT 32/14 A3004 RMK A01 T03230136  RH  032%=      5-min Rain = 0
KAI1 120010Z 16011KT 32/14 A3004 RMK A01 T03230135  RH  032%=      5-min Rain = 0
KAI1 120011Z 15008KT 32/14 A3004 RMK A01 T03240137  RH  032%=      5-min Rain = 0
KAI1 120012Z 15012KT 32/14 A3004 RMK A01 T03240138  RH  032%=      5-min Rain = 0
KAI1 120013Z 15014KT 32/14 A3004 RMK A01 T03240135  RH  032%=      5-min Rain = 0
KAI1 120014Z 15010KT 32/14 A3004 RMK A01 T03240137  RH  032%=      5-min Rain = 0
KAI1 120015Z 15011KT 32/14 A3004 RMK A01 T03230139  RH  033%=      5-min Rain = 0
KAI1 120016Z 16014KT 32/14 A3004 RMK A01 T03240138  RH  032%=      5-min Rain = 0
KAI1 120017Z 16012KT 32/14 A3005 RMK A01 T03240139  RH  033%=      5-min Rain = 0
KAI1 120018Z 17010KT 32/14 A3005 RMK A01 T03240143  RH  033%=      5-min Rain = 0
KAI1 120019Z 17013KT 32/14 A3005 RMK A01 T03240142  RH  033%=      5-min Rain = 0
KAI1 120020Z 17013KT 32/14 A3005 RMK A01 T03230141  RH  033%=      5-min Rain = 0
KAI1 120021Z 16011KT 32/14 A3005 RMK A01 T03220140  RH  033%=      5-min Rain = 0
KAI1 120022Z 16012KT 32/14 A3005 RMK A01 T03210140  RH  033%=      5-min Rain = 0
KAI1 120023Z 17008KT 32/14 A3005 RMK A01 T03200140  RH  034%=      5-min Rain = 0
KAI1 120024Z 17008KT 32/14 A3005 RMK A01 T03200142  RH  034%=      5-min Rain = 0
KAI1 120025Z 16009KT 32/14 A3005 RMK A01 T03180144  RH  035%=      5-min Rain = 0
KAI1 120026Z 16009KT 32/15 A3005 RMK A01 T03170145  RH  035%=      5-min Rain = 0
KAI1 120027Z 16011KT 32/14 A3005 RMK A01 T03160140  RH  034%=      5-min Rain = 0
KAI1 120028Z 16012KT 32/14 A3005 RMK A01 T03150137  RH  034%=      5-min Rain = 0
KAI1 120029Z 16014KT 31/14 A3005 RMK A01 T03140137  RH  034%=      5-min Rain = 0
KAI1 120030Z 17012KT 31/14 A3005 RMK A01 T03140138  RH  034%=      5-min Rain = 0
KAI1 120031Z 17011KT 31/14 A3005 RMK A01 T03130140  RH  035%=      5-min Rain = 0
KAI1 120032Z 17011KT 31/14 A3005 RMK A01 T03120141  RH  035%=      5-min Rain = 0
KAI1 120033Z 16012KT 31/14 A3005 RMK A01 T03110140  RH  035%=      5-min Rain = 0
KAI1 120034Z 16011KT 31/14 A3005 RMK A01 T03110137  RH  035%=      5-min Rain = 0
KAI1 120035Z 15011KT 31/14 A3005 RMK A01 T03110137  RH  035%=      5-min Rain = 0
KAI1 120036Z 15012KT 31/14 A3005 RMK A01 T03110137  RH  035%=      5-min Rain = 0
KAI1 120037Z 15012KT 31/14 A3005 RMK A01 T03100135  RH  034%=      5-min Rain = 0
KAI1 120038Z 15010KT 31/14 A3005 RMK A01 T03110136  RH  034%=      5-min Rain = 0
KAI1 120039Z 15010KT 31/14 A3005 RMK A01 T03100136  RH  035%=      5-min Rain = 0
KAI1 120040Z 16012KT 31/14 A3005 RMK A01 T03100136  RH  035%=      5-min Rain = 0
KAI1 120041Z 16010KT 31/14 A3005 RMK A01 T03100135  RH  034%=      5-min Rain = 0
KAI1 120042Z 16009KT 31/14 A3005 RMK A01 T03090136  RH  035%=      5-min Rain = 0
KAI1 120043Z 16010KT 31/14 A3005 RMK A01 T03090137  RH  035%=      5-min Rain = 0
KAI1 120044Z 16010KT 31/14 A3005 RMK A01 T03080137  RH  035%=      5-min Rain = 0
KAI1 120045Z 16009KT 31/14 A3005 RMK A01 T03070138  RH  036%=      5-min Rain = 0
KAI1 120046Z 16008KT 31/14 A3006 RMK A01 T03070139  RH  036%=      5-min Rain = 0
KAI1 120047Z 16008KT 31/14 A3006 RMK A01 T03060139  RH  036%=      5-min Rain = 0
KAI1 120048Z 16008KT 31/14 A3006 RMK A01 T03060140  RH  036%=      5-min Rain = 0
KAI1 120049Z 16009KT 31/14 A3006 RMK A01 T03050139  RH  036%=      5-min Rain = 0
KAI1 120050Z 16008KT 30/14 A3006 RMK A01 T03040139  RH  036%=      5-min Rain = 0
KAI1 120051Z 16008KT 30/14 A3006 RMK A01 T03040140  RH  037%=      5-min Rain = 0
KAI1 120052Z 16008KT 30/14 A3006 RMK A01 T03040140  RH  037%=      5-min Rain = 0
KAI1 120053Z 16008KT 30/14 A3006 RMK A01 T03040141  RH  037%=      5-min Rain = 0
KAI1 120054Z 16011KT 30/14 A3006 RMK A01 T03040140  RH  037%=      5-min Rain = 0
KAI1 120055Z 16009KT 30/14 A3006 RMK A01 T03040139  RH  036%=      5-min Rain = 0
KAI1 120056Z 16007KT 30/14 A3006 RMK A01 T03040139  RH  037%=      5-min Rain = 0
KAI1 120057Z 16007KT 30/14 A3006 RMK A01 T03030140  RH  037%=      5-min Rain = 0
KAI1 120058Z 16008KT 30/14 A3006 RMK A01 T03030140  RH  037%=      5-min Rain = 0
KAI1 120059Z 16010KT 30/14 A3006 RMK A01 T03030139  RH  037%=      5-min Rain = 0
KAI1 120100Z 16010KT 30/14 A3006 RMK A01 T03030138  RH  037%=      5-min Rain = 0
KAI1 120101Z 16012KT 30/14 A3006 RMK A01 T03030136  RH  036%=      5-min Rain = 0
KAI1 120102Z 16010KT 30/14 A3006 RMK A01 T03030136  RH  036%=      5-min Rain = 0
KAI1 120103Z 16010KT 30/14 A3006 RMK A01 T03040137  RH  036%=      5-min Rain = 0
KAI1 120104Z 16011KT 30/14 A3006 RMK A01 T03030137  RH  036%=      5-min Rain = 0
KAI1 120105Z 16012KT 30/14 A3006 RMK A01 T03030135  RH  036%=      5-min Rain = 0
KAI1 120106Z 16013KT 30/13 A3006 RMK A01 T03030134  RH  036%=      5-min Rain = 0
KAI1 120107Z 17009KT 30/14 A3006 RMK A01 T03040135  RH  036%=      5-min Rain = 0
KAI1 120108Z 16009KT 30/14 A3006 RMK A01 T03040138  RH  036%=      5-min Rain = 0
KAI1 120109Z 16010KT 30/14 A3006 RMK A01 T03020138  RH  037%=      5-min Rain = 0
KAI1 120110Z 16009KT 30/14 A3006 RMK A01 T03020138  RH  037%=      5-min Rain = 0
KAI1 120111Z 16010KT 30/14 A3006 RMK A01 T03010139  RH  037%=      5-min Rain = 0
KAI1 120112Z 16009KT 30/14 A3006 RMK A01 T03000139  RH  037%=      5-min Rain = 0
KAI1 120113Z 16009KT 30/14 A3006 RMK A01 T02990139  RH  038%=      5-min Rain = 0
KAI1 120114Z 16008KT 30/14 A3006 RMK A01 T02980140  RH  038%=      5-min Rain = 0
KAI1 120115Z 16008KT 30/14 A3006 RMK A01 T02980140  RH  038%=      5-min Rain = 0
KAI1 120116Z 16009KT 30/14 A3006 RMK A01 T02970138  RH  038%=      5-min Rain = 0
KAI1 120117Z 16010KT 30/14 A3006 RMK A01 T02970138  RH  038%=      5-min Rain = 0
KAI1 120118Z 16008KT 30/14 A3006 RMK A01 T02970138  RH  038%=      5-min Rain = 0
KAI1 120119Z 16007KT 30/14 A3006 RMK A01 T02970139  RH  038%=      5-min Rain = 0
KAI1 120120Z 16007KT 30/14 A3006 RMK A01 T02960140  RH  038%=      5-min Rain = 0
KAI1 120121Z 16007KT 30/14 A3006 RMK A01 T02950140  RH  039%=      5-min Rain = 0
KAI1 120122Z 16007KT 29/14 A3006 RMK A01 T02940140  RH  039%=      5-min Rain = 0
KAI1 120123Z 16007KT 29/14 A3006 RMK A01 T02930140  RH  039%=      5-min Rain = 0
KAI1 120124Z 17007KT 29/14 A3006 RMK A01 T02930140  RH  039%=      5-min Rain = 0
KAI1 120125Z 16007KT 29/14 A3006 RMK A01 T02920141  RH  040%=      5-min Rain = 0
KAI1 120126Z 16007KT 29/14 A3006 RMK A01 T02910141  RH  040%=      5-min Rain = 0
KAI1 120127Z 16007KT 29/14 A3006 RMK A01 T02900141  RH  040%=      5-min Rain = 0
KAI1 120128Z 16007KT 29/14 A3006 RMK A01 T02890141  RH  040%=      5-min Rain = 0
KAI1 120129Z 16007KT 29/14 A3006 RMK A01 T02890141  RH  040%=      5-min Rain = 0
KAI1 120130Z 16006KT 29/14 A3006 RMK A01 T02880141  RH  040%=      5-min Rain = 0
KAI1 120131Z 17006KT 29/14 A3006 RMK A01 T02880141  RH  041%=      5-min Rain = 0
KAI1 120132Z 16007KT 29/14 A3006 RMK A01 T02870141  RH  041%=      5-min Rain = 0
KAI1 120133Z 16007KT 29/14 A3006 RMK A01 T02870141  RH  041%=      5-min Rain = 0
KAI1 120134Z 16007KT 29/14 A3006 RMK A01 T02860141  RH  041%=      5-min Rain = 0
KAI1 120135Z 16007KT 29/14 A3006 RMK A01 T02860141  RH  041%=      5-min Rain = 0
KAI1 120136Z 16007KT 29/14 A3006 RMK A01 T02860141  RH  041%=      5-min Rain = 0
KAI1 120137Z 16007KT 29/14 A3006 RMK A01 T02860140  RH  041%=      5-min Rain = 0
KAI1 120138Z 16007KT 29/14 A3006 RMK A01 T02860141  RH  041%=      5-min Rain = 0
KAI1 120139Z 16007KT 29/14 A3006 RMK A01 T02860141  RH  041%=      5-min Rain = 0
KAI1 120140Z 16006KT 29/14 A3006 RMK A01 T02860141  RH  041%=      5-min Rain = 0
KAI1 120141Z 16006KT 29/14 A3006 RMK A01 T02860141  RH  041%=      5-min Rain = 0
KAI1 120142Z 16007KT 29/14 A3006 RMK A01 T02850141  RH  041%=      5-min Rain = 0
KAI1 120143Z 16007KT 29/14 A3006 RMK A01 T02850141  RH  041%=      5-min Rain = 0
KAI1 120144Z 16007KT 29/14 A3007 RMK A01 T02850142  RH  041%=      5-min Rain = 0
KAI1 120145Z 16007KT 28/14 A3007 RMK A01 T02840141  RH  042%=      5-min Rain = 0
KAI1 120146Z 16007KT 28/14 A3007 RMK A01 T02840141  RH  042%=      5-min Rain = 0
KAI1 120147Z 16006KT 28/14 A3007 RMK A01 T02840141  RH  042%=      5-min Rain = 0
KAI1 120148Z 15006KT 28/14 A3007 RMK A01 T02830142  RH  042%=      5-min Rain = 0
KAI1 120149Z 16006KT 28/14 A3007 RMK A01 T02830142  RH  042%=      5-min Rain = 0
KAI1 120150Z 15006KT 28/14 A3007 RMK A01 T02830142  RH  042%=      5-min Rain = 0
KAI1 120151Z 16006KT 28/14 A3007 RMK A01 T02820142  RH  042%=      5-min Rain = 0
KAI1 120152Z 15006KT 28/14 A3007 RMK A01 T02810142  RH  042%=      5-min Rain = 0
KAI1 120153Z 15006KT 28/14 A3007 RMK A01 T02800142  RH  043%=      5-min Rain = 0
KAI1 120154Z 15006KT 28/14 A3007 RMK A01 T02800142  RH  043%=      5-min Rain = 0
KAI1 120155Z 15006KT 28/14 A3007 RMK A01 T02790143  RH  043%=      5-min Rain = 0
KAI1 120156Z 15006KT 28/14 A3007 RMK A01 T02780143  RH  044%=      5-min Rain = 0
KAI1 120157Z 15006KT 28/14 A3007 RMK A01 T02770144  RH  044%=      5-min Rain = 0
KAI1 120158Z 15007KT 28/15 A3007 RMK A01 T02770145  RH  044%=      5-min Rain = 0
KAI1 120159Z 15007KT 28/15 A3007 RMK A01 T02760145  RH  044%=      5-min Rain = 0
KAI1 120200Z 15007KT 28/15 A3007 RMK A01 T02760145  RH  045%=      5-min Rain = 0
KAI1 120201Z 15007KT 28/15 A3007 RMK A01 T02760145  RH  045%=      5-min Rain = 0
KAI1 120202Z 15007KT 28/15 A3007 RMK A01 T02750145  RH  045%=      5-min Rain = 0
KAI1 120203Z 14006KT 28/15 A3007 RMK A01 T02750145  RH  045%=      5-min Rain = 0
KAI1 120204Z 14007KT 27/15 A3007 RMK A01 T02740145  RH  045%=      5-min Rain = 0
KAI1 120205Z 14006KT 27/15 A3007 RMK A01 T02740145  RH  045%=      5-min Rain = 0
KAI1 120206Z 14006KT 27/15 A3007 RMK A01 T02730145  RH  046%=      5-min Rain = 0
KAI1 120207Z 14006KT 27/15 A3007 RMK A01 T02720145  RH  046%=      5-min Rain = 0
KAI1 120208Z 14006KT 27/15 A3007 RMK A01 T02720145  RH  046%=      5-min Rain = 0
KAI1 120209Z 14005KT 27/15 A3007 RMK A01 T02710146  RH  046%=      5-min Rain = 0
KAI1 120210Z 14006KT 27/15 A3007 RMK A01 T02700145  RH  046%=      5-min Rain = 0
KAI1 120211Z 14006KT 27/15 A3007 RMK A01 T02690145  RH  046%=      5-min Rain = 0
KAI1 120212Z 14006KT 27/15 A3007 RMK A01 T02690145  RH  047%=      5-min Rain = 0
KAI1 120213Z 14006KT 27/15 A3007 RMK A01 T02680145  RH  047%=      5-min Rain = 0
KAI1 120214Z 14006KT 27/15 A3007 RMK A01 T02680146  RH  047%=      5-min Rain = 0
KAI1 120215Z 14006KT 27/15 A3007 RMK A01 T02680145  RH  047%=      5-min Rain = 0
KAI1 120216Z 14006KT 27/15 A3007 RMK A01 T02680146  RH  047%=      5-min Rain = 0
KAI1 120217Z 14006KT 27/15 A3007 RMK A01 T02670146  RH  047%=      5-min Rain = 0
KAI1 120218Z 14006KT 27/15 A3007 RMK A01 T02670146  RH  048%=      5-min Rain = 0
KAI1 120219Z 14006KT 27/15 A3007 RMK A01 T02660147  RH  048%=      5-min Rain = 0
KAI1 120220Z 14006KT 27/15 A3007 RMK A01 T02650147  RH  048%=      5-min Rain = 0
KAI1 120221Z 14006KT 27/15 A3007 RMK A01 T02650148  RH  048%=      5-min Rain = 0
KAI1 120222Z 14006KT 27/15 A3007 RMK A01 T02650149  RH  049%=      5-min Rain = 0
KAI1 120223Z 14006KT 26/15 A3007 RMK A01 T02640149  RH  049%=      5-min Rain = 0
KAI1 120224Z 14006KT 26/15 A3007 RMK A01 T02630150  RH  050%=      5-min Rain = 0
KAI1 120225Z 14006KT 26/15 A3008 RMK A01 T02620150  RH  050%=      5-min Rain = 0
KAI1 120226Z 14006KT 26/15 A3008 RMK A01 T02620150  RH  050%=      5-min Rain = 0
KAI1 120227Z 13007KT 26/15 A3008 RMK A01 T02620151  RH  050%=      5-min Rain = 0
KAI1 120228Z 13007KT 26/15 A3008 RMK A01 T02610151  RH  051%=      5-min Rain = 0
KAI1 120229Z 14007KT 26/15 A3008 RMK A01 T02610151  RH  051%=      5-min Rain = 0
KAI1 120230Z 14007KT 26/15 A3008 RMK A01 T02610150  RH  050%=      5-min Rain = 0
KAI1 120231Z 14007KT 26/15 A3008 RMK A01 T02610149  RH  050%=      5-min Rain = 0
KAI1 120232Z 14007KT 26/15 A3008 RMK A01 T02620150  RH  050%=      5-min Rain = 0
KAI1 120233Z 14006KT 26/15 A3008 RMK A01 T02630150  RH  050%=      5-min Rain = 0
KAI1 120234Z 14007KT 26/15 A3008 RMK A01 T02640150  RH  049%=      5-min Rain = 0
KAI1 120235Z 14007KT 26/15 A3008 RMK A01 T02640149  RH  049%=      5-min Rain = 0
KAI1 120236Z 14006KT 27/15 A3008 RMK A01 T02650149  RH  049%=      5-min Rain = 0
KAI1 120237Z 14006KT 27/15 A3008 RMK A01 T02650149  RH  049%=      5-min Rain = 0
KAI1 120238Z 14006KT 27/15 A3009 RMK A01 T02650149  RH  049%=      5-min Rain = 0
KAI1 120239Z 14006KT 27/15 A3009 RMK A01 T02650150  RH  049%=      5-min Rain = 0
KAI1 120240Z 14005KT 27/15 A3009 RMK A01 T02650150  RH  049%=      5-min Rain = 0
KAI1 120241Z 14006KT 27/15 A3009 RMK A01 T02650151  RH  049%=      5-min Rain = 0
KAI1 120242Z 14006KT 27/15 A3009 RMK A01 T02650151  RH  049%=      5-min Rain = 0
KAI1 120243Z 14006KT 27/15 A3009 RMK A01 T02650151  RH  050%=      5-min Rain = 0
KAI1 120244Z 14005KT 26/15 A3009 RMK A01 T02640151  RH  050%=      5-min Rain = 0
KAI1 120245Z 14006KT 26/15 A3009 RMK A01 T02640152  RH  050%=      5-min Rain = 0
KAI1 120246Z 14006KT 26/15 A3009 RMK A01 T02630152  RH  050%=      5-min Rain = 0
KAI1 120247Z 14005KT 26/15 A3009 RMK A01 T02630152  RH  050%=      5-min Rain = 0
KAI1 120248Z 14005KT 26/15 A3009 RMK A01 T02630152  RH  050%=      5-min Rain = 0
KAI1 120249Z 14005KT 26/15 A3009 RMK A01 T02630152  RH  050%=      5-min Rain = 0
KAI1 120250Z 14005KT 26/15 A3009 RMK A01 T02630152  RH  050%=      5-min Rain = 0
KAI1 120251Z 14005KT 26/15 A3009 RMK A01 T02630152  RH  050%=      5-min Rain = 0
KAI1 120252Z 15005KT 26/15 A3009 RMK A01 T02630151  RH  050%=      5-min Rain = 0
KAI1 120253Z 15005KT 26/15 A3009 RMK A01 T02630151  RH  050%=      5-min Rain = 0
KAI1 120254Z 15005KT 26/15 A3009 RMK A01 T02630151  RH  050%=      5-min Rain = 0
KAI1 120255Z 15005KT 26/15 A3009 RMK A01 T02630151  RH  050%=      5-min Rain = 0
KAI1 120256Z 15005KT 26/15 A3009 RMK A01 T02630151  RH  050%=      5-min Rain = 0
KAI1 120257Z 15005KT 26/15 A3009 RMK A01 T02640151  RH  050%=      5-min Rain = 0
KAI1 120258Z 15005KT 26/15 A3009 RMK A01 T02640150  RH  050%=      5-min Rain = 0
KAI1 120259Z 15005KT 26/15 A3009 RMK A01 T02640150  RH  050%=      5-min Rain = 0
KAI1 120300Z 14005KT 26/15 A3009 RMK A01 T02640151  RH  050%=      5-min Rain = 0
KAI1 120301Z 15005KT 27/15 A3009 RMK A01 T02650150  RH  049%=      5-min Rain = 0
KAI1 120302Z 14006KT 27/15 A3009 RMK A01 T02650150  RH  049%=      5-min Rain = 0
KAI1 120303Z 14006KT 27/15 A301 RMK A01 T02650150  RH  049%=      5-min Rain = 0
KAI1 120304Z 14006KT 27/15 A301 RMK A01 T02650150  RH  049%=      5-min Rain = 0
KAI1 120305Z 14006KT 27/15 A301 RMK A01 T02650150  RH  049%=      5-min Rain = 0
KAI1 120306Z 14006KT 27/15 A301 RMK A01 T02660150  RH  049%=      5-min Rain = 0
KAI1 120307Z 14006KT 27/15 A301 RMK A01 T02660151  RH  049%=      5-min Rain = 0
KAI1 120308Z 14006KT 27/15 A301 RMK A01 T02660151  RH  049%=      5-min Rain = 0
KAI1 120309Z 14006KT 27/15 A301 RMK A01 T02660151  RH  049%=      5-min Rain = 0
KAI1 120310Z 14006KT 27/15 A301 RMK A01 T02660152  RH  050%=      5-min Rain = 0
KAI1 120311Z 14006KT 27/15 A301 RMK A01 T02660152  RH  050%=      5-min Rain = 0
KAI1 120312Z 14006KT 27/15 A301 RMK A01 T02650152  RH  050%=      5-min Rain = 0
KAI1 120313Z 14005KT 27/15 A301 RMK A01 T02650152  RH  050%=      5-min Rain = 0
KAI1 120314Z 14006KT 27/15 A301 RMK A01 T02650152  RH  050%=      5-min Rain = 0
KAI1 120315Z 13006KT 26/15 A301 RMK A01 T02640151  RH  050%=      5-min Rain = 0
KAI1 120316Z 13006KT 26/15 A301 RMK A01 T02640152  RH  050%=      5-min Rain = 0
KAI1 120317Z 13006KT 26/15 A301 RMK A01 T02640152  RH  050%=      5-min Rain = 0
KAI1 120318Z 13006KT 26/15 A301 RMK A01 T02640152  RH  050%=      5-min Rain = 0
KAI1 120319Z 13005KT 26/15 A301 RMK A01 T02640152  RH  050%=      5-min Rain = 0
KAI1 120320Z 13005KT 26/15 A301 RMK A01 T02640153  RH  051%=      5-min Rain = 0
KAI1 120321Z 13005KT 26/15 A301 RMK A01 T02630153  RH  051%=      5-min Rain = 0
KAI1 120322Z 13006KT 26/15 A301 RMK A01 T02630153  RH  051%=      5-min Rain = 0
KAI1 120323Z 13005KT 26/15 A301 RMK A01 T02620153  RH  051%=      5-min Rain = 0
KAI1 120324Z 13006KT 26/15 A301 RMK A01 T02620154  RH  051%=      5-min Rain = 0
KAI1 120325Z 13005KT 26/15 A301 RMK A01 T02620154  RH  051%=      5-min Rain = 0
KAI1 120326Z 14006KT 26/15 A301 RMK A01 T02610154  RH  052%=      5-min Rain = 0
KAI1 120327Z 14006KT 26/15 A301 RMK A01 T02610154  RH  052%=      5-min Rain = 0
KAI1 120328Z 14006KT 26/15 A301 RMK A01 T02610153  RH  052%=      5-min Rain = 0
KAI1 120329Z 14005KT 26/15 A301 RMK A01 T02610154  RH  052%=      5-min Rain = 0
KAI1 120330Z 15005KT 26/15 A301 RMK A01 T02610153  RH  051%=      5-min Rain = 0
KAI1 120331Z 16005KT 26/15 A301 RMK A01 T02610153  RH  051%=      5-min Rain = 0
KAI1 120332Z 17005KT 26/15 A3011 RMK A01 T02610153  RH  051%=      5-min Rain = 0
KAI1 120333Z 17004KT 26/15 A3011 RMK A01 T02610153  RH  051%=      5-min Rain = 0
KAI1 120334Z 17005KT 26/15 A3011 RMK A01 T02610150  RH  050%=      5-min Rain = 0
KAI1 120335Z 17005KT 26/15 A3011 RMK A01 T02610147  RH  049%=      5-min Rain = 0
KAI1 120336Z 17005KT 26/15 A3011 RMK A01 T02620146  RH  049%=      5-min Rain = 0
KAI1 120337Z 17004KT 26/15 A3011 RMK A01 T02630146  RH  049%=      5-min Rain = 0
KAI1 120338Z 17004KT 26/15 A3011 RMK A01 T02640147  RH  049%=      5-min Rain = 0
KAI1 120339Z 17004KT 26/15 A3011 RMK A01 T02640147  RH  049%=      5-min Rain = 0
KAI1 120340Z 17004KT 26/15 A3011 RMK A01 T02640148  RH  049%=      5-min Rain = 0
KAI1 120341Z 17004KT 26/15 A3011 RMK A01 T02640148  RH  049%=      5-min Rain = 0
KAI1 120342Z 17004KT 26/15 A3011 RMK A01 T02640148  RH  049%=      5-min Rain = 0
KAI1 120343Z 17003KT 26/15 A3011 RMK A01 T02640148  RH  049%=      5-min Rain = 0
KAI1 120344Z 16003KT 26/15 A3011 RMK A01 T02640148  RH  049%=      5-min Rain = 0
KAI1 120345Z 16003KT 26/15 A3011 RMK A01 T02640147  RH  049%=      5-min Rain = 0
KAI1 120346Z 16004KT 26/15 A3011 RMK A01 T02640147  RH  049%=      5-min Rain = 0
KAI1 120347Z 15004KT 26/15 A3011 RMK A01 T02640147  RH  049%=      5-min Rain = 0
KAI1 120348Z 15005KT 26/15 A3011 RMK A01 T02640148  RH  049%=      5-min Rain = 0
KAI1 120349Z 15005KT 26/15 A3011 RMK A01 T02640148  RH  049%=      5-min Rain = 0
KAI1 120350Z 15006KT 26/15 A3011 RMK A01 T02640147  RH  049%=      5-min Rain = 0
KAI1 120351Z 15006KT 26/15 A3011 RMK A01 T02640147  RH  048%=      5-min Rain = 0
KAI1 120352Z 16007KT 26/15 A3011 RMK A01 T02640146  RH  048%=      5-min Rain = 0
KAI1 120353Z 16008KT 27/15 A3011 RMK A01 T02650146  RH  048%=      5-min Rain = 0
KAI1 120354Z 15010KT 27/14 A3011 RMK A01 T02660144  RH  047%=      5-min Rain = 0
KAI1 120355Z 16010KT 27/14 A3011 RMK A01 T02680144  RH  047%=      5-min Rain = 0
KAI1 120356Z 16013KT 27/15 A3011 RMK A01 T02690146  RH  047%=      5-min Rain = 0
KAI1 120357Z 16013KT 27/15 A3011 RMK A01 T02700147  RH  047%=      5-min Rain = 0
KAI1 120358Z 17012KT 27/15 A3011 RMK A01 T02710148  RH  047%=      5-min Rain = 0
KAI1 120359Z 17013KT 27/15 A3011 RMK A01 T02700149  RH  047%=      5-min Rain = 0
KAI1 120400Z 17013KT 27/15 A3011 RMK A01 T02700150  RH  048%=      5-min Rain = 0
KAI1 120401Z 17011KT 27/15 A3011 RMK A01 T02710152  RH  048%=      5-min Rain = 0
KAI1 120402Z 17012KT 27/15 A3011 RMK A01 T02700153  RH  049%=      5-min Rain = 0
KAI1 120403Z 17013G19KT 27/15 A3011 RMK A01 T02700154  RH  049%=      5-min Rain = 0
KAI1 120404Z 18016KT 27/16 A3011 RMK A01 T02700155  RH  049%=      5-min Rain = 0
KAI1 120405Z 18013KT 27/16 A3012 RMK A01 T02700156  RH  050%=      5-min Rain = 0
KAI1 120406Z 18014KT 27/16 A3012 RMK A01 T02700156  RH  050%=      5-min Rain = 0
KAI1 120407Z 18013KT 27/16 A3012 RMK A01 T02700157  RH  050%=      5-min Rain = 0
KAI1 120408Z 20013KT 27/16 A3012 RMK A01 T02680160  RH  052%=      5-min Rain = 0
KAI1 120409Z 19012KT 27/16 A3012 RMK A01 T02650163  RH  053%=      5-min Rain = 0
KAI1 120410Z 19010KT 26/16 A3012 RMK A01 T02620163  RH  055%=      5-min Rain = 0
KAI1 120411Z 18012KT 26/17 A3012 RMK A01 T02600166  RH  056%=      5-min Rain = 0
KAI1 120412Z 19012KT 26/17 A3013 RMK A01 T02570169  RH  058%=      5-min Rain = 0
KAI1 120413Z 20011KT 25/17 A3012 RMK A01 T02540171  RH  060%=      5-min Rain = 0
KAI1 120414Z 19012KT 25/18 A3013 RMK A01 T02500176  RH  063%=      5-min Rain = 0
KAI1 120415Z 18013KT 25/18 A3013 RMK A01 T02450180  RH  067%=      5-min Rain = 0
KAI1 120416Z 16016KT 24/18 A3013 RMK A01 T02400177  RH  068%=      5-min Rain = 0.02
KAI1 120417Z 15015KT 24/18 A3013 RMK A01 T02380175  RH  068%=      5-min Rain = 0.01
KAI1 120418Z 15012KT 24/17 A3013 RMK A01 T02360172  RH  067%=      5-min Rain = 0
KAI1 120419Z 16009KT 24/18 A3013 RMK A01 T02360175  RH  069%=      5-min Rain = 0
KAI1 120420Z 17007KT 23/18 A3013 RMK A01 T02340181  RH  072%=      5-min Rain = 0.01
KAI1 120421Z 20007KT 23/19 A3013 RMK A01 T02310185  RH  075%=      5-min Rain = 0
KAI1 120422Z 21007KT 23/18 A3013 RMK A01 T02280183  RH  076%=      5-min Rain = 0
KAI1 120423Z 21008KT 23/19 A3013 RMK A01 T02270188  RH  079%=      5-min Rain = 0
KAI1 120424Z 21010KT 22/19 A3014 RMK A01 T02240188  RH  080%=      5-min Rain = 0
KAI1 120425Z 20010KT 22/19 A3014 RMK A01 T02230187  RH  080%=      5-min Rain = 0
KAI1 120426Z 20009KT 22/19 A3014 RMK A01 T02230186  RH  079%=      5-min Rain = 0
KAI1 120427Z 20010KT 23/18 A3014 RMK A01 T02260180  RH  075%=      5-min Rain = 0
KAI1 120428Z 19009KT 23/18 A3014 RMK A01 T02280178  RH  074%=      5-min Rain = 0.01
KAI1 120429Z 20008KT 23/18 A3014 RMK A01 T02280177  RH  073%=      5-min Rain = 0.01
KAI1 120430Z 20007KT 23/18 A3014 RMK A01 T02280180  RH  074%=      5-min Rain = 0
KAI1 120431Z 20008KT 23/18 A3014 RMK A01 T02270180  RH  075%=      5-min Rain = 0.01
KAI1 120432Z 19007KT 23/18 A3014 RMK A01 T02260181  RH  076%=      5-min Rain = 0.01
KAI1 120433Z 19008KT 23/18 A3014 RMK A01 T02250178  RH  075%=      5-min Rain = 0.01
KAI1 120434Z 18006KT 23/17 A3013 RMK A01 T02260173  RH  072%=      5-min Rain = 0
KAI1 120435Z 16009KT 23/18 A3013 RMK A01 T02280176  RH  072%=      5-min Rain = 0.01
KAI1 120436Z 16013KT 23/18 A3013 RMK A01 T02290179  RH  073%=      5-min Rain = 0.01
KAI1 120437Z 18014KT 23/18 A3013 RMK A01 T02290175  RH  072%=      5-min Rain = 0.01
KAI1 120438Z 20005KT 23/17 A3013 RMK A01 T02320169  RH  068%=      5-min Rain = 0.01
KAI1 120439Z 17007KT 24/17 A3013 RMK A01 T02350171  RH  067%=      5-min Rain = 0
KAI1 120440Z 17008KT 24/17 A3013 RMK A01 T02350174  RH  068%=      5-min Rain = 0
KAI1 120441Z 17011KT 24/17 A3013 RMK A01 T02350168  RH  066%=      5-min Rain = 0.01
KAI1 120442Z 14011KT 24/17 A3013 RMK A01 T02380174  RH  067%=      5-min Rain = 0
KAI1 120443Z 15011KT 24/18 A3013 RMK A01 T02360176  RH  069%=      5-min Rain = 0.01
KAI1 120444Z 15011KT 23/18 A3014 RMK A01 T02340175  RH  070%=      5-min Rain = 0
KAI1 120445Z 16011KT 23/18 A3014 RMK A01 T02330176  RH  071%=      5-min Rain = 0.01
KAI1 120446Z 14010KT 23/18 A3014 RMK A01 T02310177  RH  071%=      5-min Rain = 0.01
KAI1 120447Z 14009KT 23/18 A3014 RMK A01 T02300178  RH  072%=      5-min Rain = 0
KAI1 120448Z 15008KT 23/18 A3014 RMK A01 T02290178  RH  073%=      5-min Rain = 0.01
KAI1 120449Z 16009G14KT 23/18 A3014 RMK A01 T02270180  RH  075%=      5-min Rain = 0
KAI1 120450Z 16010KT 23/18 A3014 RMK A01 T02260177  RH  074%=      5-min Rain = 0.01
KAI1 120451Z 16011KT 23/18 A3014 RMK A01 T02260176  RH  074%=      5-min Rain = 0
KAI1 120452Z 18011KT 23/18 A3014 RMK A01 T02270176  RH  073%=      5-min Rain = 0
KAI1 120453Z 18015KT 23/18 A3014 RMK A01 T02300175  RH  071%=      5-min Rain = 0
KAI1 120454Z 18015KT 23/18 A3014 RMK A01 T02320179  RH  072%=      5-min Rain = 0
KAI1 120455Z 18015KT 23/18 A3014 RMK A01 T02320178  RH  072%=      5-min Rain = 0
KAI1 120456Z 18013KT 23/18 A3014 RMK A01 T02320179  RH  072%=      5-min Rain = 0
KAI1 120457Z 18013KT 23/18 A3014 RMK A01 T02300181  RH  074%=      5-min Rain = 0
KAI1 120458Z 18018KT 23/18 A3014 RMK A01 T02270184  RH  076%=      5-min Rain = 0
KAI1 120459Z 19020KT 22/18 A3014 RMK A01 T02240179  RH  075%=      5-min Rain = 0.01
KAI1 120500Z 19016KT 23/18 A3015 RMK A01 T02250177  RH  074%=      5-min Rain = 0.01

Page generated in 0.071 seconds.